Time,TemperatureF,DewpointF,PressureIn,WindDirection,WindDirectionDegrees,WindSpeedMPH,WindSpeedGustMPH,Humidity,HourlyPrecipIn,Conditions,Clouds,dailyrainin,SolarRadiationWatts/m^2,SoftwareType,DateUTC
2013-02-15 00:00:00,30.8,28.5,30.45,SE,135,0.0,0.0,91,0.00,,,0.00,0.0,WeatherDisplay:10.37,2013-02-15 08:00:00,
2013-02-15 00:01:00,30.8,28.5,30.45,SE,135,1.1,0.0,91,0.00,,,0.00,0.0,WeatherDisplay:10.37,2013-02-15 08:01:00,
2013-02-15 00:03:00,30.8,28.5,30.46,SE,135,0.0,0.0,91,0.00,,,0.00,0.0,WeatherDisplay:10.37,2013-02-15 08:03:00,
2013-02-15 00:05:00,30.8,28.5,30.46,SE,135,0.0,0.0,91,0.00,,,0.00,0.0,WeatherDisplay:10.37,2013-02-15 08:05:00,
2013-02-15 00:06:00,30.8,28.5,30.46,SE,135,0.0,0.0,91,0.00,,,0.00,0.0,WeatherDisplay:10.37,2013-02-15 08:06:00,
2013-02-15 00:07:00,30.6,28.3,30.46,SE,135,0.0,0.0,91,0.00,,,0.00,0.0,WeatherDisplay:10.37,2013-02-15 08:07:00,
2013-02-15 00:08:00,30.6,28.3,30.45,SE,135,1.1,1.1,91,0.00,,,0.00,0.0,WeatherDisplay:10.37,2013-02-15 08:08:00,
2013-02-15 00:10:00,30.6,28.3,30.45,SE,135,0.0,0.0,91,0.00,,,0.00,0.0,WeatherDisplay:10.37,2013-02-15 08:10:00,
2013-02-15 00:11:00,30.5,28.2,30.45,SE,135,1.0,1.0,91,0.00,,,0.00,0.0,WeatherDisplay:10.37,2013-02-15 08:11:00,
2013-02-15 00:12:00,30.5,27.9,30.45,SE,135,1.1,1.1,90,0.00,,,0.00,0.0,WeatherDisplay:10.37,2013-02-15 08:12:00,
2013-02-15 00:13:00,30.5,28.2,30.45,SE,135,0.0,0.0,91,0.00,,,0.00,0.0,WeatherDisplay:10.37,2013-02-15 08:13:00,
2013-02-15 00:16:00,30.5,28.2,30.45,SE,135,1.1,0.0,91,0.00,,,0.00,0.0,WeatherDisplay:10.37,2013-02-15 08:16:00,
2013-02-15 00:18:00,30.5,28.2,30.45,SE,135,1.0,0.0,91,0.00,,,0.00,0.0,WeatherDisplay:10.37,2013-02-15 08:18:00,
2013-02-15 00:21:00,30.4,28.1,30.45,SE,135,1.1,1.1,91,0.00,,,0.00,0.0,WeatherDisplay:10.37,2013-02-15 08:21:00,
2013-02-15 00:23:00,30.4,28.1,30.45,SE,135,0.0,0.0,91,0.00,,,0.00,0.0,WeatherDisplay:10.37,2013-02-15 08:23:00,
2013-02-15 00:24:00,30.4,28.1,30.45,SE,135,1.1,0.0,91,0.00,,,0.00,0.0,WeatherDisplay:10.37,2013-02-15 08:24:00,
2013-02-15 00:26:00,30.3,28.0,30.45,SE,135,1.0,0.0,91,0.00,,,0.00,0.0,WeatherDisplay:10.37,2013-02-15 08:26:00,
2013-02-15 00:28:00,30.3,28.0,30.45,SE,130,2.3,2.3,91,0.00,,,0.00,0.0,WeatherDisplay:10.37,2013-02-15 08:28:00,
2013-02-15 00:29:00,30.3,28.0,30.45,SE,130,2.3,2.3,91,0.00,,,0.00,0.0,WeatherDisplay:10.37,2013-02-15 08:29:00,
2013-02-15 00:31:00,30.3,28.0,30.45,SE,130,1.1,1.1,91,0.00,,,0.00,0.0,WeatherDisplay:10.37,2013-02-15 08:31:00,
2013-02-15 00:32:00,30.3,28.0,30.45,SE,130,1.1,0.0,91,0.00,,,0.00,0.0,WeatherDisplay:10.37,2013-02-15 08:32:00,
2013-02-15 00:33:00,30.3,28.0,30.45,SE,130,0.0,0.0,91,0.00,,,0.00,0.0,WeatherDisplay:10.37,2013-02-15 08:33:00,
2013-02-15 00:34:00,30.3,28.0,30.45,SE,130,1.1,1.1,91,0.00,,,0.00,0.0,WeatherDisplay:10.37,2013-02-15 08:34:00,
2013-02-15 00:37:00,30.3,28.0,30.45,SE,130,0.0,0.0,91,0.00,,,0.00,0.0,WeatherDisplay:10.37,2013-02-15 08:37:00,
2013-02-15 00:38:00,30.3,28.0,30.45,SE,130,1.1,1.1,91,0.00,,,0.00,0.0,WeatherDisplay:10.37,2013-02-15 08:38:00,
2013-02-15 00:39:00,30.3,28.0,30.45,SE,130,0.0,0.0,91,0.00,,,0.00,0.0,WeatherDisplay:10.37,2013-02-15 08:39:00,
2013-02-15 00:42:00,30.3,28.0,30.45,SE,130,1.0,1.0,91,0.00,,,0.00,0.0,WeatherDisplay:10.37,2013-02-15 08:42:00,
2013-02-15 00:44:00,30.3,28.0,30.45,SE,130,2.3,2.3,91,0.00,,,0.00,0.0,WeatherDisplay:10.37,2013-02-15 08:44:00,
2013-02-15 00:47:00,30.2,27.9,30.45,SE,130,0.0,0.0,91,0.00,,,0.00,0.0,WeatherDisplay:10.37,2013-02-15 08:47:00,
2013-02-15 00:48:00,30.2,27.9,30.45,SE,130,0.0,0.0,91,0.00,,,0.00,0.0,WeatherDisplay:10.37,2013-02-15 08:48:00,
2013-02-15 00:49:00,30.2,27.9,30.45,SE,130,0.0,0.0,91,0.00,,,0.00,0.0,WeatherDisplay:10.37,2013-02-15 08:49:00,
2013-02-15 00:50:00,30.2,27.9,30.45,SE,130,0.0,0.0,91,0.00,,,0.00,0.0,WeatherDisplay:10.37,2013-02-15 08:50:00,
2013-02-15 00:52:00,30.2,27.9,30.45,SE,130,0.0,0.0,91,0.00,,,0.00,0.0,WeatherDisplay:10.37,2013-02-15 08:52:00,
2013-02-15 00:53:00,30.2,27.9,30.45,SE,130,0.0,0.0,91,0.00,,,0.00,0.0,WeatherDisplay:10.37,2013-02-15 08:53:00,
2013-02-15 00:54:00,30.2,27.9,30.45,SE,130,0.0,0.0,91,0.00,,,0.00,0.0,WeatherDisplay:10.37,2013-02-15 08:54:00,
2013-02-15 00:55:00,30.2,27.9,30.45,SE,130,0.0,0.0,91,0.00,,,0.00,0.0,WeatherDisplay:10.37,2013-02-15 08:55:00,
2013-02-15 00:57:00,30.1,27.8,30.45,SE,130,0.0,0.0,91,0.00,,,0.00,0.0,WeatherDisplay:10.37,2013-02-15 08:57:00,
2013-02-15 00:58:00,30.1,27.8,30.45,SE,130,0.0,0.0,91,0.00,,,0.00,0.0,WeatherDisplay:10.37,2013-02-15 08:58:00,
2013-02-15 00:59:00,30.1,28.1,30.45,SE,130,0.0,0.0,92,0.00,,,0.00,0.0,WeatherDisplay:10.37,2013-02-15 08:59:00,
2013-02-15 01:00:00,30.1,28.1,30.45,SE,130,1.1,0.0,92,0.00,,,0.00,0.0,WeatherDisplay:10.37,2013-02-15 09:00:00,
2013-02-15 01:02:00,30.1,28.1,30.45,SE,130,0.0,0.0,92,0.00,,,0.00,0.0,WeatherDisplay:10.37,2013-02-15 09:02:00,
2013-02-15 01:03:00,30.1,28.1,30.45,SE,130,0.0,0.0,92,0.00,,,0.00,0.0,WeatherDisplay:10.37,2013-02-15 09:03:00,
2013-02-15 01:04:00,30.1,28.1,30.45,SE,130,0.0,0.0,92,0.00,,,0.00,0.0,WeatherDisplay:10.37,2013-02-15 09:04:00,
2013-02-15 01:05:00,30.1,28.1,30.45,SE,130,0.0,0.0,92,0.00,,,0.00,0.0,WeatherDisplay:10.37,2013-02-15 09:05:00,
2013-02-15 01:08:00,30.1,28.1,30.46,SE,130,1.1,0.0,92,0.00,,,0.00,0.0,WeatherDisplay:10.37,2013-02-15 09:08:00,
2013-02-15 01:10:00,30.1,28.1,30.45,SE,130,0.0,0.1,92,0.00,,,0.00,0.0,WeatherDisplay:10.37,2013-02-15 09:10:00,
2013-02-15 01:13:00,30.0,28.0,30.46,SE,130,1.0,0.0,92,0.00,,,0.00,0.0,WeatherDisplay:10.37,2013-02-15 09:13:00,
2013-02-15 01:15:00,30.0,28.0,30.45,SE,130,1.1,0.0,92,0.00,,,0.00,0.0,WeatherDisplay:10.37,2013-02-15 09:15:00,
2013-02-15 01:18:00,30.0,28.0,30.45,SE,130,1.1,0.0,92,0.00,,,0.00,0.0,WeatherDisplay:10.37,2013-02-15 09:18:00,
2013-02-15 01:19:00,30.0,28.0,30.45,SE,130,1.1,0.0,92,0.00,,,0.00,0.0,WeatherDisplay:10.37,2013-02-15 09:19:00,
2013-02-15 01:20:00,30.0,28.0,30.45,SE,130,0.0,0.0,92,0.00,,,0.00,0.0,WeatherDisplay:10.37,2013-02-15 09:20:00,
2013-02-15 01:21:00,30.0,28.0,30.45,SE,130,1.0,1.0,92,0.00,,,0.00,0.0,WeatherDisplay:10.37,2013-02-15 09:21:00,
2013-02-15 01:24:00,30.1,28.1,30.45,SE,133,1.1,1.1,92,0.00,,,0.00,0.0,WeatherDisplay:10.37,2013-02-15 09:24:00,
2013-02-15 01:25:00,30.1,28.1,30.45,SE,133,0.0,0.0,92,0.00,,,0.00,0.0,WeatherDisplay:10.37,2013-02-15 09:25:00,
2013-02-15 01:26:00,30.1,28.1,30.45,SE,133,1.1,1.1,92,0.00,,,0.00,0.0,WeatherDisplay:10.37,2013-02-15 09:26:00,
2013-02-15 01:29:00,30.0,28.0,30.45,SE,133,0.0,0.0,92,0.00,,,0.00,0.0,WeatherDisplay:10.37,2013-02-15 09:29:00,
2013-02-15 01:30:00,30.0,28.0,30.45,SE,133,0.0,0.0,92,0.00,,,0.00,0.0,WeatherDisplay:10.37,2013-02-15 09:30:00,
2013-02-15 01:31:00,30.0,28.0,30.45,SE,133,0.0,0.0,92,0.00,,,0.00,0.0,WeatherDisplay:10.37,2013-02-15 09:31:00,
2013-02-15 01:34:00,30.0,28.0,30.45,SE,133,0.0,0.0,92,0.00,,,0.00,0.0,WeatherDisplay:10.37,2013-02-15 09:34:00,
2013-02-15 01:35:00,29.9,27.9,30.45,SE,133,0.0,0.0,92,0.00,,,0.00,0.0,WeatherDisplay:10.37,2013-02-15 09:35:00,
2013-02-15 01:36:00,29.9,27.9,30.45,SE,133,0.0,0.0,92,0.00,,,0.00,0.0,WeatherDisplay:10.37,2013-02-15 09:36:00,
2013-02-15 01:39:00,29.8,27.8,30.45,SE,133,0.0,0.0,92,0.00,,,0.00,0.0,WeatherDisplay:10.37,2013-02-15 09:39:00,
2013-02-15 01:40:00,29.8,27.8,30.45,SE,133,0.0,0.0,92,0.00,,,0.00,0.0,WeatherDisplay:10.37,2013-02-15 09:40:00,
2013-02-15 01:41:00,29.8,27.8,30.45,SE,133,0.0,0.0,92,0.00,,,0.00,0.0,WeatherDisplay:10.37,2013-02-15 09:41:00,
2013-02-15 01:45:00,29.8,27.8,30.45,SE,133,1.1,0.0,92,0.00,,,0.00,0.0,WeatherDisplay:10.37,2013-02-15 09:45:00,
2013-02-15 01:46:00,29.8,27.8,30.45,SE,133,1.1,1.1,92,0.00,,,0.00,0.0,WeatherDisplay:10.37,2013-02-15 09:46:00,
2013-02-15 01:50:00,29.9,27.9,30.45,SE,133,0.0,0.0,92,0.00,,,0.00,0.0,WeatherDisplay:10.37,2013-02-15 09:50:00,
2013-02-15 01:51:00,29.9,27.9,30.45,SE,133,0.0,0.0,92,0.00,,,0.00,0.0,WeatherDisplay:10.37,2013-02-15 09:51:00,
2013-02-15 01:52:00,29.8,27.8,30.45,SE,133,0.0,0.0,92,0.00,,,0.00,0.0,WeatherDisplay:10.37,2013-02-15 09:52:00,
2013-02-15 01:56:00,29.8,27.8,30.45,SE,133,0.0,0.0,92,0.00,,,0.00,0.0,WeatherDisplay:10.37,2013-02-15 09:56:00,
2013-02-15 01:57:00,29.7,27.7,30.45,SE,133,1.1,0.0,92,0.00,,,0.00,0.0,WeatherDisplay:10.37,2013-02-15 09:57:00,
2013-02-15 02:01:00,29.7,27.7,30.45,SE,133,0.0,0.1,92,0.00,,,0.00,0.0,WeatherDisplay:10.37,2013-02-15 10:01:00,
2013-02-15 02:02:00,29.7,27.7,30.45,SE,133,1.1,1.1,92,0.00,,,0.00,0.0,WeatherDisplay:10.37,2013-02-15 10:02:00,
2013-02-15 02:06:00,29.6,27.6,30.45,SE,133,1.1,1.1,92,0.00,,,0.00,0.0,WeatherDisplay:10.37,2013-02-15 10:06:00,
2013-02-15 02:07:00,29.6,27.6,30.45,SE,133,1.1,0.0,92,0.00,,,0.00,0.0,WeatherDisplay:10.37,2013-02-15 10:07:00,
2013-02-15 02:11:00,29.5,27.5,30.45,SE,133,1.1,0.0,92,0.00,,,0.00,0.0,WeatherDisplay:10.37,2013-02-15 10:11:00,
2013-02-15 02:12:00,29.5,27.5,30.45,SE,133,1.1,1.1,92,0.00,,,0.00,0.0,WeatherDisplay:10.37,2013-02-15 10:12:00,
2013-02-15 02:13:00,29.5,27.5,30.46,SE,133,1.1,0.0,92,0.00,,,0.00,0.0,WeatherDisplay:10.37,2013-02-15 10:13:00,
2013-02-15 02:16:00,29.4,27.1,30.45,SE,133,1.1,1.1,91,0.00,,,0.00,0.0,WeatherDisplay:10.37,2013-02-15 10:16:00,
2013-02-15 02:17:00,29.4,27.1,30.45,SE,133,1.1,1.1,91,0.00,,,0.00,0.0,WeatherDisplay:10.37,2013-02-15 10:17:00,
2013-02-15 02:18:00,29.3,27.0,30.45,SE,133,1.1,1.1,91,0.00,,,0.00,0.0,WeatherDisplay:10.37,2013-02-15 10:18:00,
2013-02-15 02:22:00,29.3,27.0,30.45,SE,133,0.0,0.0,91,0.00,,,0.00,0.0,WeatherDisplay:10.37,2013-02-15 10:22:00,
2013-02-15 02:24:00,29.3,27.0,30.45,SE,133,1.1,0.0,91,0.00,,,0.00,0.0,WeatherDisplay:10.37,2013-02-15 10:24:00,
2013-02-15 02:27:00,29.3,27.3,30.45,SE,133,0.0,0.0,92,0.00,,,0.00,0.0,WeatherDisplay:10.37,2013-02-15 10:27:00,
2013-02-15 02:29:00,29.3,27.3,30.45,SE,133,0.0,0.0,92,0.00,,,0.00,0.0,WeatherDisplay:10.37,2013-02-15 10:29:00,
2013-02-15 02:32:00,29.3,27.3,30.45,SE,133,1.1,1.1,92,0.00,,,0.00,0.0,WeatherDisplay:10.37,2013-02-15 10:32:00,
2013-02-15 02:33:00,29.3,27.3,30.45,SE,133,1.1,0.0,92,0.00,,,0.00,0.0,WeatherDisplay:10.37,2013-02-15 10:33:00,
2013-02-15 02:34:00,29.3,27.3,30.45,SE,133,0.0,0.0,92,0.00,,,0.00,0.0,WeatherDisplay:10.37,2013-02-15 10:34:00,
2013-02-15 02:37:00,29.2,27.2,30.45,SE,133,0.0,0.0,92,0.00,,,0.00,0.0,WeatherDisplay:10.37,2013-02-15 10:37:00,
2013-02-15 02:38:00,29.2,27.2,30.45,SE,133,0.0,0.0,92,0.00,,,0.00,0.0,WeatherDisplay:10.37,2013-02-15 10:38:00,
2013-02-15 02:39:00,29.2,27.2,30.45,SE,133,0.0,0.0,92,0.00,,,0.00,0.0,WeatherDisplay:10.37,2013-02-15 10:39:00,
2013-02-15 02:42:00,29.2,27.2,30.45,SE,133,1.1,1.1,92,0.00,,,0.00,0.0,WeatherDisplay:10.37,2013-02-15 10:42:00,
2013-02-15 02:43:00,29.2,27.2,30.45,SE,133,0.0,0.0,92,0.00,,,0.00,0.0,WeatherDisplay:10.37,2013-02-15 10:43:00,
2013-02-15 02:44:00,29.2,27.2,30.45,SE,133,0.0,0.0,92,0.00,,,0.00,0.0,WeatherDisplay:10.37,2013-02-15 10:44:00,
2013-02-15 02:48:00,29.4,27.4,30.45,SE,133,0.0,0.0,92,0.00,,,0.00,0.0,WeatherDisplay:10.37,2013-02-15 10:48:00,
2013-02-15 02:50:00,29.5,27.5,30.45,SE,133,0.0,0.0,92,0.00,,,0.00,0.0,WeatherDisplay:10.37,2013-02-15 10:50:00,
2013-02-15 02:53:00,29.5,27.5,30.45,SE,133,1.1,0.0,92,0.00,,,0.00,0.0,WeatherDisplay:10.37,2013-02-15 10:53:00,
2013-02-15 02:55:00,29.6,27.6,30.45,SE,133,1.1,1.1,92,0.00,,,0.00,0.0,WeatherDisplay:10.37,2013-02-15 10:55:00,
2013-02-15 02:58:00,29.6,27.6,30.45,SE,133,1.1,1.1,92,0.00,,,0.00,0.0,WeatherDisplay:10.37,2013-02-15 10:58:00,
2013-02-15 03:00:00,29.6,27.6,30.45,SE,133,1.1,1.1,92,0.00,,,0.00,0.0,WeatherDisplay:10.37,2013-02-15 11:00:00,
2013-02-15 03:03:00,29.6,27.6,30.45,SE,133,1.1,0.0,92,0.00,,,0.00,0.0,WeatherDisplay:10.37,2013-02-15 11:03:00,
2013-02-15 03:05:00,29.6,27.6,30.45,SE,134,1.1,1.1,92,0.00,,,0.00,0.0,WeatherDisplay:10.37,2013-02-15 11:05:00,
2013-02-15 03:06:00,29.6,27.6,30.45,SE,133,1.1,0.0,92,0.00,,,0.00,0.0,WeatherDisplay:10.37,2013-02-15 11:06:00,
2013-02-15 03:08:00,29.5,27.5,30.44,SE,134,1.1,1.1,92,0.00,,,0.00,0.0,WeatherDisplay:10.37,2013-02-15 11:08:00,
2013-02-15 03:09:00,29.5,27.5,30.44,SE,134,1.1,1.1,92,0.00,,,0.00,0.0,WeatherDisplay:10.37,2013-02-15 11:09:00,
2013-02-15 03:10:00,29.6,27.6,30.44,SE,134,1.1,1.1,92,0.00,,,0.00,0.0,WeatherDisplay:10.37,2013-02-15 11:10:00,
2013-02-15 03:11:00,29.5,27.5,30.44,SE,134,1.1,0.0,92,0.00,,,0.00,0.0,WeatherDisplay:10.37,2013-02-15 11:11:00,
2013-02-15 03:13:00,29.5,27.5,30.44,SE,134,0.0,0.0,92,0.00,,,0.00,0.0,WeatherDisplay:10.37,2013-02-15 11:13:00,
2013-02-15 03:15:00,29.5,27.5,30.44,SE,134,1.1,0.0,92,0.00,,,0.00,0.0,WeatherDisplay:10.37,2013-02-15 11:15:00,
2013-02-15 03:17:00,29.4,27.4,30.44,SE,134,0.0,0.0,92,0.00,,,0.00,0.0,WeatherDisplay:10.37,2013-02-15 11:17:00,
2013-02-15 03:19:00,29.4,27.4,30.43,SE,134,0.0,0.0,92,0.00,,,0.00,0.0,WeatherDisplay:10.37,2013-02-15 11:19:00,
2013-02-15 03:20:00,29.3,27.3,30.43,SE,134,0.0,0.0,92,0.00,,,0.00,0.0,WeatherDisplay:10.37,2013-02-15 11:20:00,
2013-02-15 03:22:00,29.2,27.2,30.44,SE,134,0.0,0.0,92,0.00,,,0.00,0.0,WeatherDisplay:10.37,2013-02-15 11:22:00,
2013-02-15 03:24:00,29.2,27.2,30.44,SE,134,0.0,0.0,92,0.00,,,0.00,0.0,WeatherDisplay:10.37,2013-02-15 11:24:00,
2013-02-15 03:25:00,29.1,27.1,30.43,SE,134,0.0,0.0,92,0.00,,,0.00,0.0,WeatherDisplay:10.37,2013-02-15 11:25:00,
2013-02-15 03:27:00,29.0,27.0,30.43,SE,134,0.0,0.0,92,0.00,,,0.00,0.0,WeatherDisplay:10.37,2013-02-15 11:27:00,
2013-02-15 03:30:00,28.9,26.9,30.44,SE,134,1.1,0.0,92,0.00,,,0.00,0.0,WeatherDisplay:10.37,2013-02-15 11:30:00,
2013-02-15 03:32:00,28.8,26.8,30.44,SE,133,0.0,0.0,92,0.00,,,0.00,0.0,WeatherDisplay:10.37,2013-02-15 11:32:00,
2013-02-15 03:35:00,28.7,26.4,30.44,SE,134,0.0,1.0,91,0.00,,,0.00,0.0,WeatherDisplay:10.37,2013-02-15 11:35:00,
2013-02-15 03:36:00,28.6,26.3,30.44,SE,134,0.0,0.0,91,0.00,,,0.00,0.0,WeatherDisplay:10.37,2013-02-15 11:36:00,
2013-02-15 03:37:00,28.6,26.6,30.43,SE,134,0.0,0.0,92,0.00,,,0.00,0.0,WeatherDisplay:10.37,2013-02-15 11:37:00,
2013-02-15 03:40:00,28.6,26.6,30.43,SE,134,0.0,0.0,92,0.00,,,0.00,0.0,WeatherDisplay:10.37,2013-02-15 11:40:00,
2013-02-15 03:41:00,28.6,26.6,30.43,SE,134,0.0,0.0,92,0.00,,,0.00,0.0,WeatherDisplay:10.37,2013-02-15 11:41:00,
2013-02-15 03:42:00,28.5,26.5,30.43,SE,134,0.0,0.0,92,0.00,,,0.00,0.0,WeatherDisplay:10.37,2013-02-15 11:42:00,
2013-02-15 03:43:00,28.5,26.5,30.43,SE,133,0.0,0.0,92,0.00,,,0.00,0.0,WeatherDisplay:10.37,2013-02-15 11:43:00,
2013-02-15 03:46:00,28.5,26.5,30.44,SE,134,0.0,0.0,92,0.00,,,0.00,0.0,WeatherDisplay:10.37,2013-02-15 11:46:00,
2013-02-15 03:47:00,28.5,26.5,30.44,SE,134,0.0,0.0,92,0.00,,,0.00,0.0,WeatherDisplay:10.37,2013-02-15 11:47:00,
2013-02-15 03:48:00,28.5,26.5,30.43,SE,134,0.0,0.1,92,0.00,,,0.00,0.0,WeatherDisplay:10.37,2013-02-15 11:48:00,
2013-02-15 03:51:00,28.4,26.4,30.44,SE,134,0.0,0.0,92,0.00,,,0.00,0.0,WeatherDisplay:10.37,2013-02-15 11:51:00,
2013-02-15 03:52:00,28.3,26.3,30.44,SE,134,0.0,0.0,92,0.00,,,0.00,0.0,WeatherDisplay:10.37,2013-02-15 11:52:00,
2013-02-15 03:53:00,28.3,26.3,30.43,SE,134,1.1,0.0,92,0.00,,,0.00,0.0,WeatherDisplay:10.37,2013-02-15 11:53:00,
2013-02-15 03:56:00,28.1,25.8,30.43,SE,133,0.0,0.0,91,0.00,,,0.00,0.0,WeatherDisplay:10.37,2013-02-15 11:56:00,
2013-02-15 03:57:00,28.1,25.8,30.43,SE,134,0.0,0.0,91,0.00,,,0.00,0.0,WeatherDisplay:10.37,2013-02-15 11:57:00,
2013-02-15 03:58:00,28.1,25.8,30.43,SE,134,0.0,0.0,91,0.00,,,0.00,0.0,WeatherDisplay:10.37,2013-02-15 11:58:00,
2013-02-15 04:01:00,27.9,25.6,30.43,SE,134,1.0,0.0,91,0.00,,,0.00,0.0,WeatherDisplay:10.37,2013-02-15 12:01:00,
2013-02-15 04:02:00,27.9,25.9,30.43,SE,134,1.1,0.0,92,0.00,,,0.00,0.0,WeatherDisplay:10.37,2013-02-15 12:02:00,
2013-02-15 04:03:00,27.9,25.9,30.43,SE,133,0.0,0.0,92,0.00,,,0.00,0.0,WeatherDisplay:10.37,2013-02-15 12:03:00,
2013-02-15 04:05:00,27.8,25.8,30.43,SE,134,0.0,0.0,92,0.00,,,0.00,0.0,WeatherDisplay:10.37,2013-02-15 12:05:00,
2013-02-15 04:06:00,27.8,25.8,30.43,SE,133,0.0,0.0,92,0.00,,,0.00,0.0,WeatherDisplay:10.37,2013-02-15 12:06:00,
2013-02-15 04:07:00,27.8,25.8,30.43,SE,134,1.0,0.0,92,0.00,,,0.00,0.0,WeatherDisplay:10.37,2013-02-15 12:07:00,
2013-02-15 04:09:00,27.8,25.8,30.43,SE,134,1.1,0.0,92,0.00,,,0.00,0.0,WeatherDisplay:10.37,2013-02-15 12:09:00,
2013-02-15 04:10:00,27.8,25.8,30.43,SE,134,0.0,0.0,92,0.00,,,0.00,0.0,WeatherDisplay:10.37,2013-02-15 12:10:00,
2013-02-15 04:11:00,27.8,25.8,30.43,SE,133,0.0,0.0,92,0.00,,,0.00,0.0,WeatherDisplay:10.37,2013-02-15 12:11:00,
2013-02-15 04:13:00,27.8,25.8,30.43,SE,134,0.0,0.1,92,0.00,,,0.00,0.0,WeatherDisplay:10.37,2013-02-15 12:13:00,
2013-02-15 04:14:00,27.8,25.8,30.43,SE,134,1.1,0.0,92,0.00,,,0.00,0.0,WeatherDisplay:10.37,2013-02-15 12:14:00,
2013-02-15 04:15:00,27.8,25.8,30.43,SE,134,0.0,1.0,92,0.00,,,0.00,0.0,WeatherDisplay:10.37,2013-02-15 12:15:00,
2013-02-15 04:16:00,27.7,25.7,30.43,SE,133,0.0,0.0,92,0.00,,,0.00,0.0,WeatherDisplay:10.37,2013-02-15 12:16:00,
2013-02-15 04:18:00,27.6,25.6,30.43,SE,134,0.0,0.0,92,0.00,,,0.00,0.0,WeatherDisplay:10.37,2013-02-15 12:18:00,
2013-02-15 04:19:00,27.6,25.6,30.43,SE,134,0.0,0.0,92,0.00,,,0.00,0.0,WeatherDisplay:10.37,2013-02-15 12:19:00,
2013-02-15 04:20:00,27.6,25.5,30.43,SE,134,0.0,0.0,92,0.00,,,0.00,0.0,WeatherDisplay:10.37,2013-02-15 12:20:00,
2013-02-15 04:21:00,27.5,25.2,30.43,SE,133,0.0,0.0,91,0.00,,,0.00,0.0,WeatherDisplay:10.37,2013-02-15 12:21:00,
2013-02-15 04:23:00,27.4,25.1,30.43,SE,134,0.0,0.0,91,0.00,,,0.00,0.0,WeatherDisplay:10.37,2013-02-15 12:23:00,
2013-02-15 04:24:00,27.3,25.0,30.43,SE,133,0.0,0.0,91,0.00,,,0.00,0.0,WeatherDisplay:10.37,2013-02-15 12:24:00,
2013-02-15 04:26:00,27.3,25.0,30.43,SE,133,0.0,0.0,91,0.00,,,0.00,0.0,WeatherDisplay:10.37,2013-02-15 12:26:00,
2013-02-15 04:27:00,27.3,25.0,30.43,SE,133,0.0,0.0,91,0.00,,,0.00,0.0,WeatherDisplay:10.37,2013-02-15 12:27:00,
2013-02-15 04:28:00,27.2,24.9,30.43,SE,134,0.0,0.0,91,0.00,,,0.00,0.0,WeatherDisplay:10.37,2013-02-15 12:28:00,
2013-02-15 04:29:00,27.2,24.9,30.43,SE,133,0.0,0.0,91,0.00,,,0.00,0.0,WeatherDisplay:10.37,2013-02-15 12:29:00,
2013-02-15 04:31:00,27.1,24.8,30.43,SE,133,0.0,0.0,91,0.00,,,0.00,0.0,WeatherDisplay:10.37,2013-02-15 12:31:00,
2013-02-15 04:32:00,27.1,24.8,30.43,SE,133,0.0,0.0,91,0.00,,,0.00,0.0,WeatherDisplay:10.37,2013-02-15 12:32:00,
2013-02-15 04:34:00,27.0,24.7,30.43,SE,134,0.0,0.0,91,0.00,,,0.00,0.0,WeatherDisplay:10.37,2013-02-15 12:34:00,
2013-02-15 04:36:00,26.9,24.6,30.43,SE,133,0.0,0.0,91,0.00,,,0.00,0.0,WeatherDisplay:10.37,2013-02-15 12:36:00,
2013-02-15 04:37:00,26.9,24.6,30.43,SE,134,0.0,0.0,91,0.00,,,0.00,0.0,WeatherDisplay:10.37,2013-02-15 12:37:00,
2013-02-15 04:39:00,26.8,24.5,30.43,SE,134,0.0,0.0,91,0.00,,,0.00,0.0,WeatherDisplay:10.37,2013-02-15 12:39:00,
2013-02-15 04:40:00,26.9,24.6,30.43,SE,134,0.0,0.0,91,0.00,,,0.00,0.0,WeatherDisplay:10.37,2013-02-15 12:40:00,
2013-02-15 04:41:00,26.8,24.5,30.43,SE,134,0.0,0.0,91,0.00,,,0.00,0.0,WeatherDisplay:10.37,2013-02-15 12:41:00,
2013-02-15 04:43:00,26.8,24.8,30.43,SE,134,0.0,0.0,92,0.00,,,0.00,0.0,WeatherDisplay:10.37,2013-02-15 12:43:00,
2013-02-15 04:45:00,26.9,24.9,30.43,SE,134,1.0,0.0,92,0.00,,,0.00,0.0,WeatherDisplay:10.37,2013-02-15 12:45:00,
2013-02-15 04:46:00,26.9,24.9,30.43,SE,134,1.1,0.0,92,0.00,,,0.00,0.0,WeatherDisplay:10.37,2013-02-15 12:46:00,
2013-02-15 04:48:00,27.0,25.0,30.43,SE,134,0.0,0.0,92,0.00,,,0.00,0.0,WeatherDisplay:10.37,2013-02-15 12:48:00,
2013-02-15 04:50:00,27.0,25.0,30.42,SE,134,0.0,0.0,92,0.00,,,0.00,0.0,WeatherDisplay:10.37,2013-02-15 12:50:00,
2013-02-15 04:51:00,27.0,25.0,30.42,SE,133,0.0,0.0,92,0.00,,,0.00,0.0,WeatherDisplay:10.37,2013-02-15 12:51:00,
2013-02-15 04:53:00,27.0,25.0,30.42,SE,133,0.0,0.0,92,0.00,,,0.00,0.0,WeatherDisplay:10.37,2013-02-15 12:53:00,
2013-02-15 04:55:00,27.0,25.0,30.42,SE,133,0.0,0.0,92,0.00,,,0.00,0.0,WeatherDisplay:10.37,2013-02-15 12:55:00,
2013-02-15 04:56:00,27.1,25.1,30.42,SE,134,0.0,0.0,92,0.00,,,0.00,0.0,WeatherDisplay:10.37,2013-02-15 12:56:00,
2013-02-15 04:59:00,27.2,25.4,30.42,SE,134,0.0,0.0,93,0.00,,,0.00,0.0,WeatherDisplay:10.37,2013-02-15 12:59:00,
2013-02-15 05:00:00,27.2,25.2,30.42,SE,134,0.0,0.0,92,0.00,,,0.00,0.0,WeatherDisplay:10.37,2013-02-15 13:00:00,
2013-02-15 05:01:00,27.1,25.1,30.42,SE,133,0.0,0.0,92,0.00,,,0.00,0.0,WeatherDisplay:10.37,2013-02-15 13:01:00,
2013-02-15 05:04:00,26.9,24.9,30.42,SE,133,0.0,0.0,92,0.00,,,0.00,0.0,WeatherDisplay:10.37,2013-02-15 13:04:00,
2013-02-15 05:05:00,26.9,24.9,30.42,SE,133,0.0,0.0,92,0.00,,,0.00,0.0,WeatherDisplay:10.37,2013-02-15 13:05:00,
2013-02-15 05:07:00,26.8,24.8,30.42,SE,134,1.1,1.1,92,0.00,,,0.00,0.0,WeatherDisplay:10.37,2013-02-15 13:07:00,
2013-02-15 05:10:00,26.7,24.7,30.42,SE,133,0.0,1.0,92,0.00,,,0.00,0.0,WeatherDisplay:10.37,2013-02-15 13:10:00,
2013-02-15 05:11:00,26.7,24.7,30.42,SE,134,1.1,0.0,92,0.00,,,0.00,0.0,WeatherDisplay:10.37,2013-02-15 13:11:00,
2013-02-15 05:12:00,26.7,24.7,30.42,SE,134,1.1,0.0,92,0.00,,,0.00,0.0,WeatherDisplay:10.37,2013-02-15 13:12:00,
2013-02-15 05:15:00,26.6,24.6,30.42,SE,134,0.0,0.0,92,0.00,,,0.00,0.0,WeatherDisplay:10.37,2013-02-15 13:15:00,
2013-02-15 05:16:00,26.6,24.6,30.42,SE,134,0.0,0.0,92,0.00,,,0.00,0.0,WeatherDisplay:10.37,2013-02-15 13:16:00,
2013-02-15 05:17:00,26.6,24.6,30.42,SE,134,0.0,0.0,92,0.00,,,0.00,0.0,WeatherDisplay:10.37,2013-02-15 13:17:00,
2013-02-15 05:21:00,26.5,24.5,30.42,SE,134,0.0,0.0,92,0.00,,,0.00,0.0,WeatherDisplay:10.37,2013-02-15 13:21:00,
2013-02-15 05:22:00,26.5,24.5,30.41,SE,134,0.0,0.0,92,0.00,,,0.00,0.0,WeatherDisplay:10.37,2013-02-15 13:22:00,
2013-02-15 05:26:00,26.5,24.5,30.42,SE,133,0.0,0.0,92,0.00,,,0.00,0.0,WeatherDisplay:10.37,2013-02-15 13:26:00,
2013-02-15 05:27:00,26.4,24.4,30.42,SE,134,0.0,0.0,92,0.00,,,0.00,0.0,WeatherDisplay:10.37,2013-02-15 13:27:00,
2013-02-15 05:31:00,26.4,24.4,30.41,SE,133,0.0,0.0,92,0.00,,,0.00,0.0,WeatherDisplay:10.37,2013-02-15 13:31:00,
2013-02-15 05:32:00,26.3,24.3,30.41,SE,133,0.0,0.0,92,0.00,,,0.00,0.0,WeatherDisplay:10.37,2013-02-15 13:32:00,
2013-02-15 05:33:00,26.3,24.3,30.41,SE,134,0.0,0.0,92,0.00,,,0.00,0.0,WeatherDisplay:10.37,2013-02-15 13:33:00,
2013-02-15 05:36:00,26.3,24.3,30.42,SE,133,0.0,0.0,92,0.00,,,0.00,0.0,WeatherDisplay:10.37,2013-02-15 13:36:00,
2013-02-15 05:37:00,26.3,24.3,30.42,SE,134,0.0,0.0,92,0.00,,,0.00,0.0,WeatherDisplay:10.37,2013-02-15 13:37:00,
2013-02-15 05:38:00,26.3,24.3,30.42,SE,134,0.0,0.0,92,0.00,,,0.00,0.0,WeatherDisplay:10.37,2013-02-15 13:38:00,
2013-02-15 05:39:00,26.3,24.3,30.42,SE,134,1.1,0.0,92,0.00,,,0.00,0.0,WeatherDisplay:10.37,2013-02-15 13:39:00,
2013-02-15 05:41:00,26.3,24.3,30.42,SE,134,0.0,0.0,92,0.00,,,0.00,0.0,WeatherDisplay:10.37,2013-02-15 13:41:00,
2013-02-15 05:43:00,26.3,24.3,30.41,SE,133,0.0,0.0,92,0.00,,,0.00,0.0,WeatherDisplay:10.37,2013-02-15 13:43:00,
2013-02-15 05:44:00,26.2,24.2,30.41,SE,134,0.0,0.0,92,0.00,,,0.00,0.0,WeatherDisplay:10.37,2013-02-15 13:44:00,
2013-02-15 05:46:00,26.2,24.2,30.41,SE,133,1.1,1.1,92,0.00,,,0.00,0.0,WeatherDisplay:10.37,2013-02-15 13:46:00,
2013-02-15 05:48:00,26.2,24.2,30.41,SE,134,1.1,1.1,92,0.00,,,0.00,0.0,WeatherDisplay:10.37,2013-02-15 13:48:00,
2013-02-15 05:50:00,26.2,24.2,30.42,SE,133,1.1,0.0,92,0.00,,,0.00,0.0,WeatherDisplay:10.37,2013-02-15 13:50:00,
2013-02-15 05:51:00,26.2,24.2,30.42,SE,134,1.1,1.1,92,0.00,,,0.00,0.0,WeatherDisplay:10.37,2013-02-15 13:51:00,
2013-02-15 05:53:00,26.2,24.2,30.41,SE,134,1.1,1.1,92,0.00,,,0.00,0.0,WeatherDisplay:10.37,2013-02-15 13:53:00,
2013-02-15 05:56:00,26.3,24.3,30.41,SE,134,1.0,1.0,92,0.00,,,0.00,0.0,WeatherDisplay:10.37,2013-02-15 13:56:00,
2013-02-15 05:58:00,26.4,24.7,30.42,SE,134,2.3,2.3,93,0.00,,,0.00,0.0,WeatherDisplay:10.37,2013-02-15 13:58:00,
2013-02-15 05:59:00,26.5,24.8,30.42,SE,134,1.1,1.1,93,0.00,,,0.00,0.0,WeatherDisplay:10.37,2013-02-15 13:59:00,
2013-02-15 06:01:00,26.7,24.9,30.41,SE,133,2.3,2.3,93,0.00,,,0.00,0.0,WeatherDisplay:10.37,2013-02-15 14:01:00,
2013-02-15 06:03:00,26.7,24.9,30.41,SE,134,1.1,1.1,93,0.00,,,0.00,0.0,WeatherDisplay:10.37,2013-02-15 14:03:00,
2013-02-15 06:05:00,27.0,25.2,30.41,SE,133,3.5,3.5,93,0.00,,,0.00,0.0,WeatherDisplay:10.37,2013-02-15 14:05:00,
2013-02-15 06:07:00,27.1,25.3,30.41,SE,133,2.3,2.3,93,0.00,,,0.00,0.0,WeatherDisplay:10.37,2013-02-15 14:07:00,
2013-02-15 06:08:00,27.2,25.4,30.41,SE,133,1.1,0.0,93,0.00,,,0.00,0.0,WeatherDisplay:10.37,2013-02-15 14:08:00,
2013-02-15 06:11:00,27.2,25.4,30.41,SE,133,1.1,1.1,93,0.00,,,0.00,0.0,WeatherDisplay:10.37,2013-02-15 14:11:00,
2013-02-15 06:12:00,27.3,25.5,30.41,SE,133,1.1,1.1,93,0.00,,,0.00,0.0,WeatherDisplay:10.37,2013-02-15 14:12:00,
2013-02-15 06:13:00,27.3,25.5,30.41,SE,133,1.1,1.1,93,0.00,,,0.00,0.0,WeatherDisplay:10.37,2013-02-15 14:13:00,
2013-02-15 06:16:00,27.3,25.5,30.41,SE,133,1.1,1.1,93,0.00,,,0.00,0.0,WeatherDisplay:10.37,2013-02-15 14:16:00,
2013-02-15 06:17:00,27.3,25.5,30.41,SE,133,1.1,1.1,93,0.00,,,0.00,0.0,WeatherDisplay:10.37,2013-02-15 14:17:00,
2013-02-15 06:18:00,27.3,25.5,30.41,SE,133,1.1,1.1,93,0.00,,,0.00,0.0,WeatherDisplay:10.37,2013-02-15 14:18:00,
2013-02-15 06:19:00,27.3,25.5,30.41,SE,133,1.1,1.1,93,0.00,,,0.00,0.0,WeatherDisplay:10.37,2013-02-15 14:19:00,
2013-02-15 06:21:00,27.3,25.5,30.41,SE,133,1.1,1.1,93,0.00,,,0.00,0.0,WeatherDisplay:10.37,2013-02-15 14:21:00,
2013-02-15 06:22:00,27.3,25.5,30.41,SE,133,1.1,1.1,93,0.00,,,0.00,0.0,WeatherDisplay:10.37,2013-02-15 14:22:00,
2013-02-15 06:23:00,27.3,25.5,30.41,SE,133,1.1,1.1,93,0.00,,,0.00,0.0,WeatherDisplay:10.37,2013-02-15 14:23:00,
2013-02-15 06:24:00,27.3,25.5,30.41,SE,133,2.3,2.3,93,0.00,,,0.00,0.0,WeatherDisplay:10.37,2013-02-15 14:24:00,
2013-02-15 06:26:00,27.3,25.5,30.41,SE,133,1.1,1.1,93,0.00,,,0.00,0.0,WeatherDisplay:10.37,2013-02-15 14:26:00,
2013-02-15 06:27:00,27.2,25.4,30.41,SE,133,1.1,1.1,93,0.00,,,0.00,0.0,WeatherDisplay:10.37,2013-02-15 14:27:00,
2013-02-15 06:28:00,27.2,25.4,30.41,SE,133,1.1,1.1,93,0.00,,,0.00,0.0,WeatherDisplay:10.37,2013-02-15 14:28:00,
2013-02-15 06:29:00,27.2,25.4,30.41,SE,133,1.1,1.1,93,0.00,,,0.00,0.0,WeatherDisplay:10.37,2013-02-15 14:29:00,
2013-02-15 06:32:00,27.2,25.4,30.41,SE,133,1.1,1.1,93,0.00,,,0.00,0.0,WeatherDisplay:10.37,2013-02-15 14:32:00,
2013-02-15 06:33:00,27.1,25.3,30.41,SE,133,1.1,1.1,93,0.00,,,0.00,0.0,WeatherDisplay:10.37,2013-02-15 14:33:00,
2013-02-15 06:34:00,27.1,25.3,30.41,SE,133,1.1,1.1,93,0.00,,,0.00,0.0,WeatherDisplay:10.37,2013-02-15 14:34:00,
2013-02-15 06:37:00,27.1,25.3,30.41,SE,133,1.1,1.1,93,0.00,,,0.00,0.0,WeatherDisplay:10.37,2013-02-15 14:37:00,
2013-02-15 06:39:00,27.1,25.3,30.41,SE,133,1.1,0.0,93,0.00,,,0.00,0.0,WeatherDisplay:10.37,2013-02-15 14:39:00,
2013-02-15 06:42:00,27.1,25.3,30.41,SE,133,0.0,0.0,93,0.00,,,0.00,0.0,WeatherDisplay:10.37,2013-02-15 14:42:00,
2013-02-15 06:43:00,27.1,25.3,30.41,SE,133,0.0,0.0,93,0.00,,,0.00,0.0,WeatherDisplay:10.37,2013-02-15 14:43:00,
2013-02-15 06:44:00,27.1,25.3,30.41,SE,133,0.0,0.0,93,0.00,,,0.00,0.0,WeatherDisplay:10.37,2013-02-15 14:44:00,
2013-02-15 06:45:00,27.1,25.3,30.41,SE,133,1.1,0.0,93,0.00,,,0.00,0.0,WeatherDisplay:10.37,2013-02-15 14:45:00,
2013-02-15 06:47:00,27.2,25.4,30.41,SE,133,0.0,0.0,93,0.00,,,0.00,0.0,WeatherDisplay:10.37,2013-02-15 14:47:00,
2013-02-15 06:48:00,27.2,25.4,30.41,SE,133,0.0,0.0,93,0.00,,,0.00,0.0,WeatherDisplay:10.37,2013-02-15 14:48:00,
2013-02-15 06:49:00,27.2,25.4,30.41,SE,133,0.0,0.0,93,0.00,,,0.00,0.0,WeatherDisplay:10.37,2013-02-15 14:49:00,
2013-02-15 06:50:00,27.2,25.4,30.41,SE,133,1.1,0.0,93,0.00,,,0.00,0.0,WeatherDisplay:10.37,2013-02-15 14:50:00,
2013-02-15 06:53:00,27.2,25.4,30.41,SE,133,0.0,0.0,93,0.00,,,0.00,0.0,WeatherDisplay:10.37,2013-02-15 14:53:00,
2013-02-15 06:54:00,27.2,25.4,30.41,SE,133,1.1,0.0,93,0.00,,,0.00,0.0,WeatherDisplay:10.37,2013-02-15 14:54:00,
2013-02-15 06:55:00,27.2,25.4,30.41,SE,133,0.0,0.0,93,0.00,,,0.00,0.0,WeatherDisplay:10.37,2013-02-15 14:55:00,
2013-02-15 06:58:00,27.2,25.4,30.41,SE,133,0.0,0.0,93,0.00,,,0.00,0.0,WeatherDisplay:10.37,2013-02-15 14:58:00,
2013-02-15 06:59:00,27.2,25.4,30.41,SE,133,0.0,0.0,93,0.00,,,0.00,0.0,WeatherDisplay:10.37,2013-02-15 14:59:00,
2013-02-15 07:00:00,27.2,25.4,30.40,SE,133,0.0,0.0,93,0.00,,,0.00,0.0,WeatherDisplay:10.37,2013-02-15 15:00:00,
2013-02-15 07:03:00,27.1,25.3,30.40,SE,133,0.0,0.0,93,0.00,,,0.00,0.0,WeatherDisplay:10.37,2013-02-15 15:03:00,
2013-02-15 07:05:00,27.1,25.3,30.40,SE,133,0.0,0.0,93,0.00,,,0.00,6.0,WeatherDisplay:10.37,2013-02-15 15:05:00,
2013-02-15 07:08:00,27.1,25.3,30.40,SE,133,0.0,0.0,93,0.00,CLR,,0.00,6.0,WeatherDisplay:10.37,2013-02-15 15:08:00,
2013-02-15 07:09:00,27.1,25.3,30.40,SE,133,0.0,0.0,93,0.00,CLR,,0.00,6.0,WeatherDisplay:10.37,2013-02-15 15:09:00,
2013-02-15 07:10:00,27.1,25.3,30.41,SE,133,0.0,0.0,93,0.00,CLR,,0.00,8.4,WeatherDisplay:10.37,2013-02-15 15:10:00,
2013-02-15 07:13:00,27.1,25.3,30.41,SE,133,0.0,0.0,93,0.00,SCT,,0.00,8.4,WeatherDisplay:10.37,2013-02-15 15:13:00,
2013-02-15 07:15:00,27.0,25.2,30.41,SE,133,0.0,0.0,93,0.00,SCT,,0.00,10.8,WeatherDisplay:10.37,2013-02-15 15:15:00,
2013-02-15 07:16:00,27.1,25.3,30.41,SE,133,0.0,0.0,93,0.00,SCT,,0.00,10.8,WeatherDisplay:10.37,2013-02-15 15:16:00,
2013-02-15 07:19:00,27.0,25.2,30.41,SE,133,0.0,0.0,93,0.00,SCT,,0.00,13.2,WeatherDisplay:10.37,2013-02-15 15:19:00,
2013-02-15 07:20:00,27.0,25.2,30.41,SE,133,0.0,0.0,93,0.00,SCT,,0.00,13.2,WeatherDisplay:10.37,2013-02-15 15:20:00,
2013-02-15 07:21:00,27.0,25.2,30.41,SE,133,0.0,0.0,93,0.00,SCT,,0.00,13.2,WeatherDisplay:10.37,2013-02-15 15:21:00,
2013-02-15 07:22:00,27.0,25.2,30.41,SE,133,0.0,0.0,93,0.00,BKN,,0.00,14.4,WeatherDisplay:10.37,2013-02-15 15:22:00,
2013-02-15 07:24:00,27.1,25.3,30.40,SE,133,0.0,0.0,93,0.00,BKN,,0.00,14.4,WeatherDisplay:10.37,2013-02-15 15:24:00,
2013-02-15 07:25:00,27.1,25.3,30.40,SE,133,0.0,0.0,93,0.00,BKN,,0.00,16.8,WeatherDisplay:10.37,2013-02-15 15:25:00,
2013-02-15 07:26:00,27.1,25.3,30.40,SE,133,0.0,0.0,93,0.00,BKN,,0.00,16.8,WeatherDisplay:10.37,2013-02-15 15:26:00,
2013-02-15 07:27:00,27.2,25.4,30.40,SE,133,0.0,0.0,93,0.00,BKN,,0.00,16.8,WeatherDisplay:10.37,2013-02-15 15:27:00,
2013-02-15 07:29:00,27.2,25.4,30.40,SE,133,0.0,0.0,93,0.00,BKN,,0.00,19.2,WeatherDisplay:10.37,2013-02-15 15:29:00,
2013-02-15 07:30:00,27.2,25.4,30.41,SE,133,0.0,0.0,93,0.00,BKN,,0.00,19.2,WeatherDisplay:10.37,2013-02-15 15:30:00,
2013-02-15 07:31:00,27.2,25.4,30.41,SE,133,0.0,0.0,93,0.00,BKN,,0.00,19.2,WeatherDisplay:10.37,2013-02-15 15:31:00,
2013-02-15 07:32:00,27.3,25.5,30.41,SE,133,0.0,0.0,93,0.00,BKN,,0.00,19.2,WeatherDisplay:10.37,2013-02-15 15:32:00,
2013-02-15 07:34:00,27.3,25.5,30.40,SE,133,0.0,0.0,93,0.00,BKN,,0.00,22.8,WeatherDisplay:10.37,2013-02-15 15:34:00,
2013-02-15 07:35:00,27.3,25.5,30.40,SE,133,0.0,0.0,93,0.00,BKN,,0.00,25.2,WeatherDisplay:10.37,2013-02-15 15:35:00,
2013-02-15 07:36:00,27.3,25.5,30.41,SE,133,0.0,0.0,93,0.00,BKN,,0.00,27.6,WeatherDisplay:10.37,2013-02-15 15:36:00,
2013-02-15 07:38:00,27.4,25.6,30.41,SE,133,0.0,0.0,93,0.00,BKN,,0.00,30.0,WeatherDisplay:10.37,2013-02-15 15:38:00,
2013-02-15 07:40:00,27.4,25.6,30.41,SE,133,0.0,0.0,93,0.00,BKN,,0.00,33.6,WeatherDisplay:10.37,2013-02-15 15:40:00,
2013-02-15 07:41:00,27.4,25.6,30.41,SE,133,0.0,0.0,93,0.00,SCT,,0.00,36.0,WeatherDisplay:10.37,2013-02-15 15:41:00,
2013-02-15 07:43:00,27.5,25.7,30.41,SE,133,1.1,1.1,93,0.00,SCT,,0.00,39.6,WeatherDisplay:10.37,2013-02-15 15:43:00,
2013-02-15 07:45:00,27.5,25.7,30.41,SE,133,1.1,1.1,93,0.00,SCT,,0.00,44.4,WeatherDisplay:10.37,2013-02-15 15:45:00,
2013-02-15 07:46:00,27.6,25.8,30.41,SE,133,1.1,0.0,93,0.00,SCT,,0.00,46.8,WeatherDisplay:10.37,2013-02-15 15:46:00,
2013-02-15 07:47:00,27.6,25.8,30.41,SE,133,0.0,0.1,93,0.00,SCT,,0.00,48.0,WeatherDisplay:10.37,2013-02-15 15:47:00,
2013-02-15 07:48:00,27.7,25.9,30.41,SE,133,0.0,0.0,93,0.00,SCT,,0.00,50.4,WeatherDisplay:10.37,2013-02-15 15:48:00,
2013-02-15 07:50:00,27.8,26.0,30.41,SE,133,0.0,1.0,93,0.00,SCT,,0.00,56.4,WeatherDisplay:10.37,2013-02-15 15:50:00,
2013-02-15 07:51:00,27.9,26.1,30.41,SE,133,0.0,0.0,93,0.00,SCT,,0.00,58.8,WeatherDisplay:10.37,2013-02-15 15:51:00,
2013-02-15 07:52:00,27.9,26.1,30.41,SE,133,0.0,0.0,93,0.00,SCT,,0.00,61.2,WeatherDisplay:10.37,2013-02-15 15:52:00,
2013-02-15 07:53:00,27.9,26.1,30.41,SE,133,0.0,0.0,93,0.00,SCT,,0.00,63.6,WeatherDisplay:10.37,2013-02-15 15:53:00,
2013-02-15 07:55:00,28.1,26.3,30.41,SE,133,0.0,0.0,93,0.00,FEW,,0.00,72.0,WeatherDisplay:10.37,2013-02-15 15:55:00,
2013-02-15 07:56:00,28.2,26.4,30.41,SE,133,0.0,0.0,93,0.00,FEW,,0.00,75.6,WeatherDisplay:10.37,2013-02-15 15:56:00,
2013-02-15 07:58:00,28.5,27.0,30.41,SE,133,0.0,0.0,94,0.00,FEW,,0.00,84.0,WeatherDisplay:10.37,2013-02-15 15:58:00,
2013-02-15 07:59:00,28.6,27.1,30.41,SE,133,0.0,0.0,94,0.00,FEW,,0.00,91.2,WeatherDisplay:10.37,2013-02-15 15:59:00,
2013-02-15 08:01:00,28.9,27.4,30.41,SE,133,0.0,0.0,94,0.00,CLR,,0.00,97.2,WeatherDisplay:10.37,2013-02-15 16:01:00,
2013-02-15 08:02:00,29.0,27.5,30.41,SE,133,0.0,0.0,94,0.00,CLR,,0.00,99.6,WeatherDisplay:10.37,2013-02-15 16:02:00,
2013-02-15 08:03:00,29.1,27.6,30.41,SE,133,0.0,0.0,94,0.00,CLR,,0.00,103.2,WeatherDisplay:10.37,2013-02-15 16:03:00,
2013-02-15 08:04:00,29.1,27.6,30.41,SE,133,0.0,0.0,94,0.00,CLR,,0.00,108.0,WeatherDisplay:10.37,2013-02-15 16:04:00,
2013-02-15 08:06:00,29.4,27.9,30.41,SE,133,0.0,0.0,94,0.00,CLR,,0.00,111.6,WeatherDisplay:10.37,2013-02-15 16:06:00,
2013-02-15 08:07:00,29.6,28.1,30.41,SE,133,0.0,0.0,94,0.00,CLR,,0.00,114.0,WeatherDisplay:10.37,2013-02-15 16:07:00,
2013-02-15 08:08:00,29.8,28.0,30.41,SE,133,0.0,0.0,93,0.00,CLR,,0.00,120.0,WeatherDisplay:10.37,2013-02-15 16:08:00,
2013-02-15 08:09:00,30.0,28.2,30.41,SE,133,0.0,0.0,93,0.00,CLR,,0.00,124.8,WeatherDisplay:10.37,2013-02-15 16:09:00,
2013-02-15 08:11:00,30.4,28.9,30.41,SE,133,1.1,0.0,94,0.00,CLR,,0.00,130.8,WeatherDisplay:10.37,2013-02-15 16:11:00,
2013-02-15 08:12:00,30.6,28.8,30.41,SE,133,0.0,0.0,93,0.00,CLR,,0.00,133.2,WeatherDisplay:10.37,2013-02-15 16:12:00,
2013-02-15 08:13:00,30.9,29.1,30.41,SE,133,0.0,0.0,93,0.00,CLR,,0.00,139.2,WeatherDisplay:10.37,2013-02-15 16:13:00,
2013-02-15 08:14:00,31.0,29.2,30.42,SE,133,0.0,0.1,93,0.00,CLR,,0.00,141.6,WeatherDisplay:10.37,2013-02-15 16:14:00,
2013-02-15 08:16:00,31.2,29.1,30.42,SE,133,0.0,0.0,92,0.00,CLR,,0.00,147.6,WeatherDisplay:10.37,2013-02-15 16:16:00,
2013-02-15 08:17:00,31.4,29.3,30.42,SE,133,1.0,0.0,92,0.00,CLR,,0.00,150.0,WeatherDisplay:10.37,2013-02-15 16:17:00,
2013-02-15 08:18:00,31.5,29.4,30.42,SE,133,1.1,1.1,92,0.00,CLR,,0.01,153.6,WeatherDisplay:10.37,2013-02-15 16:18:00,
2013-02-15 08:19:00,31.5,29.2,30.42,SE,133,1.1,1.1,91,0.01,RA,,0.01,158.4,WeatherDisplay:10.37,2013-02-15 16:19:00,
2013-02-15 08:21:00,31.6,29.3,30.42,SE,133,1.1,1.1,91,0.01,RA,,0.01,160.8,WeatherDisplay:10.37,2013-02-15 16:21:00,
2013-02-15 08:22:00,31.8,29.5,30.42,SE,133,2.3,2.3,91,0.01,RA,,0.01,169.2,WeatherDisplay:10.37,2013-02-15 16:22:00,
2013-02-15 08:23:00,31.9,29.6,30.42,SE,135,2.3,2.3,91,0.01,RA,,0.01,175.2,WeatherDisplay:10.37,2013-02-15 16:23:00,
2013-02-15 08:24:00,32.0,29.7,30.42,SE,135,2.3,2.3,91,0.01,RA,,0.01,175.2,WeatherDisplay:10.37,2013-02-15 16:24:00,
2013-02-15 08:26:00,32.3,29.7,30.42,SE,137,3.5,3.5,90,0.01,RA,,0.01,186.0,WeatherDisplay:10.37,2013-02-15 16:26:00,
2013-02-15 08:27:00,32.5,29.9,30.42,SE,137,2.3,2.3,90,0.01,RA,,0.01,192.0,WeatherDisplay:10.37,2013-02-15 16:27:00,
2013-02-15 08:29:00,32.8,30.2,30.42,SE,137,1.1,1.1,90,0.01,RA,,0.01,208.8,WeatherDisplay:10.37,2013-02-15 16:29:00,
2013-02-15 08:31:00,33.0,30.1,30.42,SE,137,1.1,1.1,89,0.01,CLR,,0.01,225.6,WeatherDisplay:10.37,2013-02-15 16:31:00,
2013-02-15 08:33:00,33.3,30.1,30.42,SE,137,1.1,0.0,88,0.01,CLR,,0.01,240.0,WeatherDisplay:10.37,2013-02-15 16:33:00,
2013-02-15 08:34:00,33.3,30.1,30.42,SE,137,1.0,1.0,88,0.01,CLR,,0.01,244.8,WeatherDisplay:10.37,2013-02-15 16:34:00,
2013-02-15 08:35:00,33.4,29.9,30.42,SE,137,1.1,1.1,87,0.01,CLR,,0.01,250.8,WeatherDisplay:10.37,2013-02-15 16:35:00,
2013-02-15 08:36:00,33.4,29.9,30.42,SE,137,1.1,0.0,87,0.01,CLR,,0.01,250.8,WeatherDisplay:10.37,2013-02-15 16:36:00,
2013-02-15 08:38:00,33.3,29.8,30.42,SE,137,1.1,0.0,87,0.01,CLR,,0.01,253.2,WeatherDisplay:10.37,2013-02-15 16:38:00,
2013-02-15 08:39:00,33.3,29.8,30.42,SE,137,0.0,0.0,87,0.01,CLR,,0.01,255.6,WeatherDisplay:10.37,2013-02-15 16:39:00,
2013-02-15 08:40:00,33.5,30.0,30.42,SE,137,1.1,0.0,87,0.01,CLR,,0.01,256.8,WeatherDisplay:10.37,2013-02-15 16:40:00,
2013-02-15 08:41:00,33.7,30.2,30.42,SE,137,0.0,0.0,87,0.01,CLR,,0.01,256.8,WeatherDisplay:10.37,2013-02-15 16:41:00,
2013-02-15 08:43:00,33.8,30.1,30.42,SE,137,0.0,0.0,86,0.01,CLR,,0.01,255.6,WeatherDisplay:10.37,2013-02-15 16:43:00,
2013-02-15 08:44:00,33.9,30.2,30.42,SE,137,0.0,0.0,86,0.01,CLR,,0.01,253.2,WeatherDisplay:10.37,2013-02-15 16:44:00,
2013-02-15 08:46:00,33.8,30.1,30.41,SE,137,0.0,0.0,86,0.01,CLR,,0.01,259.2,WeatherDisplay:10.37,2013-02-15 16:46:00,
2013-02-15 08:48:00,33.9,30.2,30.41,SE,137,0.0,0.0,86,0.01,CLR,,0.01,264.0,WeatherDisplay:10.37,2013-02-15 16:48:00,
2013-02-15 08:49:00,34.0,30.3,30.41,SE,137,0.0,0.0,86,0.01,CLR,,0.01,265.2,WeatherDisplay:10.37,2013-02-15 16:49:00,
2013-02-15 08:51:00,34.2,30.4,30.41,SE,137,0.0,0.0,86,0.01,CLR,,0.01,274.8,WeatherDisplay:10.37,2013-02-15 16:51:00,
2013-02-15 08:52:00,34.3,30.5,30.41,SE,137,0.0,0.0,86,0.01,CLR,,0.01,276.0,WeatherDisplay:10.37,2013-02-15 16:52:00,
2013-02-15 08:53:00,34.4,30.6,30.41,SE,137,0.0,0.0,86,0.01,CLR,,0.01,278.4,WeatherDisplay:10.37,2013-02-15 16:53:00,
2013-02-15 08:54:00,34.4,30.4,30.41,SE,137,0.0,0.0,85,0.01,CLR,,0.01,280.8,WeatherDisplay:10.37,2013-02-15 16:54:00,
2013-02-15 08:56:00,34.8,31.0,30.41,SE,137,0.0,0.1,86,0.01,CLR,,0.01,289.2,WeatherDisplay:10.37,2013-02-15 16:56:00,
2013-02-15 08:57:00,34.9,31.1,30.41,SE,137,0.0,0.1,86,0.01,CLR,,0.01,291.6,WeatherDisplay:10.37,2013-02-15 16:57:00,
2013-02-15 08:58:00,35.0,30.9,30.41,SE,137,1.1,1.1,85,0.01,CLR,,0.01,292.8,WeatherDisplay:10.37,2013-02-15 16:58:00,
2013-02-15 08:59:00,35.0,30.7,30.42,SE,137,0.0,0.0,84,0.01,CLR,,0.01,297.6,WeatherDisplay:10.37,2013-02-15 16:59:00,
2013-02-15 09:02:00,35.2,30.9,30.41,SE,137,0.0,0.0,84,0.01,CLR,,0.01,303.6,WeatherDisplay:10.37,2013-02-15 17:02:00,
2013-02-15 09:03:00,35.6,31.2,30.41,SE,137,0.0,0.0,84,0.01,CLR,,0.01,306.0,WeatherDisplay:10.37,2013-02-15 17:03:00,
2013-02-15 09:04:00,35.8,31.7,30.41,SE,137,0.0,0.0,85,0.01,CLR,,0.01,312.0,WeatherDisplay:10.37,2013-02-15 17:04:00,
2013-02-15 09:07:00,36.2,31.8,30.41,SE,137,1.0,0.0,84,0.01,CLR,,0.01,314.4,WeatherDisplay:10.37,2013-02-15 17:07:00,
2013-02-15 09:09:00,36.5,31.8,30.41,SE,137,0.0,0.0,83,0.01,CLR,,0.01,322.8,WeatherDisplay:10.37,2013-02-15 17:09:00,
2013-02-15 09:12:00,36.8,31.8,30.41,SE,137,1.1,1.1,82,0.01,CLR,,0.01,333.6,WeatherDisplay:10.37,2013-02-15 17:12:00,
2013-02-15 09:13:00,36.8,31.8,30.41,SE,137,1.1,1.1,82,0.01,CLR,,0.01,333.6,WeatherDisplay:10.37,2013-02-15 17:13:00,
2013-02-15 09:14:00,36.8,31.8,30.41,SE,137,1.1,1.1,82,0.01,CLR,,0.01,337.2,WeatherDisplay:10.37,2013-02-15 17:14:00,
2013-02-15 09:18:00,37.5,32.2,30.41,SE,128,2.3,2.3,81,0.01,CLR,,0.01,345.6,WeatherDisplay:10.37,2013-02-15 17:18:00,
2013-02-15 09:19:00,37.6,32.3,30.41,SE,128,2.3,2.3,81,0.01,CLR,,0.01,350.4,WeatherDisplay:10.37,2013-02-15 17:19:00,
2013-02-15 09:20:00,37.6,32.0,30.41,SE,128,1.1,1.1,80,0.01,CLR,,0.01,350.4,WeatherDisplay:10.37,2013-02-15 17:20:00,
2013-02-15 09:23:00,37.8,32.2,30.41,SE,127,2.0,2.0,80,0.00,CLR,,0.01,361.2,WeatherDisplay:10.37,2013-02-15 17:23:00,
2013-02-15 09:24:00,38.0,32.4,30.41,SE,127,2.3,2.3,80,0.00,CLR,,0.01,362.4,WeatherDisplay:10.37,2013-02-15 17:24:00,
2013-02-15 09:25:00,38.1,32.5,30.41,SE,127,2.3,2.3,80,0.00,CLR,,0.01,367.2,WeatherDisplay:10.37,2013-02-15 17:25:00,
2013-02-15 09:28:00,38.5,32.6,30.41,SE,126,2.3,2.3,79,0.00,CLR,,0.01,375.6,WeatherDisplay:10.37,2013-02-15 17:28:00,
2013-02-15 09:29:00,38.5,32.6,30.41,SE,126,2.3,2.3,79,0.00,CLR,,0.01,378.0,WeatherDisplay:10.37,2013-02-15 17:29:00,
2013-02-15 09:30:00,38.5,32.6,30.41,ESE,123,3.5,3.5,79,0.00,CLR,,0.01,379.2,WeatherDisplay:10.37,2013-02-15 17:30:00,
2013-02-15 09:33:00,38.5,32.6,30.41,ESE,117,2.3,2.3,79,0.00,CLR,,0.01,387.6,WeatherDisplay:10.37,2013-02-15 17:33:00,
2013-02-15 09:34:00,38.6,32.6,30.40,ESE,109,3.5,3.5,79,0.00,CLR,,0.01,390.0,WeatherDisplay:10.37,2013-02-15 17:34:00,
2013-02-15 09:35:00,38.8,32.8,30.40,ESE,109,1.1,1.1,79,0.00,CLR,,0.01,396.0,WeatherDisplay:10.37,2013-02-15 17:35:00,
2013-02-15 09:38:00,39.8,33.5,30.41,ESE,109,1.1,0.0,78,0.00,CLR,,0.01,403.2,WeatherDisplay:10.37,2013-02-15 17:38:00,
2013-02-15 09:39:00,40.2,33.9,30.41,ESE,109,1.1,1.1,78,0.00,CLR,,0.01,405.6,WeatherDisplay:10.37,2013-02-15 17:39:00,
2013-02-15 09:40:00,40.5,33.9,30.41,ESE,109,1.1,1.1,77,0.00,CLR,,0.01,409.2,WeatherDisplay:10.37,2013-02-15 17:40:00,
2013-02-15 09:43:00,40.9,33.2,30.41,ESE,109,2.3,2.3,74,0.00,CLR,,0.01,417.6,WeatherDisplay:10.37,2013-02-15 17:43:00,
2013-02-15 09:44:00,40.8,33.5,30.41,ESE,109,1.1,1.1,75,0.00,CLR,,0.01,423.6,WeatherDisplay:10.37,2013-02-15 17:44:00,
2013-02-15 09:45:00,40.8,33.5,30.41,ESE,109,1.1,1.1,75,0.00,CLR,,0.01,423.6,WeatherDisplay:10.37,2013-02-15 17:45:00,
2013-02-15 09:48:00,41.2,33.9,30.41,ESE,109,1.1,1.1,75,0.00,CLR,,0.01,434.4,WeatherDisplay:10.37,2013-02-15 17:48:00,
2013-02-15 09:50:00,41.3,33.6,30.41,ESE,109,2.3,2.3,74,0.00,CLR,,0.01,436.8,WeatherDisplay:10.37,2013-02-15 17:50:00,
2013-02-15 09:53:00,42.1,34.1,30.41,ESE,106,2.3,2.3,73,0.00,CLR,,0.01,448.8,WeatherDisplay:10.37,2013-02-15 17:53:00,
2013-02-15 09:55:00,41.8,33.4,30.41,ESE,106,2.3,2.3,72,0.00,CLR,,0.01,457.2,WeatherDisplay:10.37,2013-02-15 17:55:00,
2013-02-15 09:58:00,41.6,33.9,30.41,ESE,102,2.3,2.3,74,0.00,CLR,,0.01,470.4,WeatherDisplay:10.37,2013-02-15 17:58:00,
2013-02-15 10:00:00,41.8,34.1,30.41,ESE,102,1.1,1.1,74,0.00,CLR,,0.01,478.8,WeatherDisplay:10.37,2013-02-15 18:00:00,
2013-02-15 10:01:00,42.0,34.3,30.41,East,98,2.0,2.0,74,0.00,CLR,,0.01,481.2,WeatherDisplay:10.37,2013-02-15 18:01:00,
2013-02-15 10:04:00,42.3,34.3,30.41,East,83,2.3,2.3,73,0.00,CLR,,0.01,487.2,WeatherDisplay:10.37,2013-02-15 18:04:00,
2013-02-15 10:05:00,42.3,34.3,30.41,East,83,2.3,2.3,73,0.00,CLR,,0.01,493.2,WeatherDisplay:10.37,2013-02-15 18:05:00,
2013-02-15 10:06:00,42.3,34.3,30.41,East,83,2.3,2.3,73,0.00,CLR,,0.01,493.2,WeatherDisplay:10.37,2013-02-15 18:06:00,
2013-02-15 10:09:00,42.5,34.1,30.41,East,83,2.3,2.3,72,0.00,CLR,,0.01,498.0,WeatherDisplay:10.37,2013-02-15 18:09:00,
2013-02-15 10:10:00,42.5,34.1,30.41,East,83,2.3,2.3,72,0.00,CLR,,0.01,500.4,WeatherDisplay:10.37,2013-02-15 18:10:00,
2013-02-15 10:11:00,42.7,34.6,30.41,East,83,2.3,2.3,73,0.00,CLR,,0.01,504.0,WeatherDisplay:10.37,2013-02-15 18:11:00,
2013-02-15 10:14:00,43.6,34.8,30.40,East,83,1.1,0.0,71,0.00,CLR,,0.01,510.0,WeatherDisplay:10.37,2013-02-15 18:14:00,
2013-02-15 10:15:00,43.9,35.1,30.40,East,83,1.1,1.1,71,0.00,CLR,,0.01,512.4,WeatherDisplay:10.37,2013-02-15 18:15:00,
2013-02-15 10:16:00,44.1,35.3,30.40,East,83,1.1,1.1,71,0.00,CLR,,0.01,512.4,WeatherDisplay:10.37,2013-02-15 18:16:00,
2013-02-15 10:17:00,44.3,35.1,30.40,East,83,1.1,1.1,70,0.00,CLR,,0.01,517.2,WeatherDisplay:10.37,2013-02-15 18:17:00,
2013-02-15 10:20:00,44.0,34.5,30.40,East,83,1.1,1.1,69,0.00,CLR,,0.01,525.6,WeatherDisplay:10.37,2013-02-15 18:20:00,
2013-02-15 10:21:00,43.7,34.2,30.40,East,80,1.1,1.1,69,0.00,CLR,,0.01,525.6,WeatherDisplay:10.37,2013-02-15 18:21:00,
2013-02-15 10:23:00,44.0,34.8,30.40,East,80,3.5,3.5,70,0.00,CLR,,0.01,531.6,WeatherDisplay:10.37,2013-02-15 18:23:00,
2013-02-15 10:25:00,44.5,35.0,30.40,East,80,1.1,0.0,69,0.00,CLR,,0.01,542.4,WeatherDisplay:10.37,2013-02-15 18:25:00,
2013-02-15 10:26:00,44.8,35.2,30.40,East,80,1.1,1.1,69,0.00,CLR,,0.01,542.4,WeatherDisplay:10.37,2013-02-15 18:26:00,
2013-02-15 10:27:00,45.1,35.2,30.40,East,80,1.1,1.1,68,0.00,CLR,,0.01,546.0,WeatherDisplay:10.37,2013-02-15 18:27:00,
2013-02-15 10:28:00,45.5,35.5,30.40,East,80,1.1,1.1,68,0.00,CLR,,0.01,546.0,WeatherDisplay:10.37,2013-02-15 18:28:00,
2013-02-15 10:30:00,45.8,35.4,30.40,East,80,0.0,1.0,67,0.00,CLR,,0.01,553.2,WeatherDisplay:10.37,2013-02-15 18:30:00,
2013-02-15 10:31:00,46.0,35.3,30.40,East,80,1.1,1.1,66,0.00,CLR,,0.01,554.4,WeatherDisplay:10.37,2013-02-15 18:31:00,
2013-02-15 10:32:00,46.0,35.3,30.40,East,80,1.1,1.1,66,0.00,CLR,,0.01,554.4,WeatherDisplay:10.37,2013-02-15 18:32:00,
2013-02-15 10:34:00,46.2,35.5,30.40,East,80,1.1,1.1,66,0.00,CLR,,0.01,559.2,WeatherDisplay:10.37,2013-02-15 18:34:00,
2013-02-15 10:35:00,46.4,35.6,30.40,East,80,0.0,2.0,66,0.00,CLR,,0.01,562.8,WeatherDisplay:10.37,2013-02-15 18:35:00,
2013-02-15 10:36:00,46.7,35.2,30.40,East,80,1.1,1.1,64,0.00,CLR,,0.01,562.8,WeatherDisplay:10.37,2013-02-15 18:36:00,
2013-02-15 10:37:00,46.7,35.2,30.40,ENE,74,2.3,2.3,64,0.00,CLR,,0.01,567.6,WeatherDisplay:10.37,2013-02-15 18:37:00,
2013-02-15 10:39:00,46.2,34.7,30.39,NE,40,3.5,3.5,64,0.00,CLR,,0.01,571.2,WeatherDisplay:10.37,2013-02-15 18:39:00,
2013-02-15 10:40:00,46.0,34.5,30.39,NE,40,2.3,2.3,64,0.00,CLR,,0.01,571.2,WeatherDisplay:10.37,2013-02-15 18:40:00,
2013-02-15 10:42:00,45.8,34.7,30.39,NE,40,2.3,2.3,65,0.00,CLR,,0.01,573.6,WeatherDisplay:10.37,2013-02-15 18:42:00,
2013-02-15 10:44:00,45.8,34.7,30.39,NNE,32,3.5,3.5,65,0.00,CLR,,0.01,576.0,WeatherDisplay:10.37,2013-02-15 18:44:00,
2013-02-15 10:45:00,45.7,34.6,30.39,NNE,14,3.5,3.5,65,0.00,CLR,,0.01,582.0,WeatherDisplay:10.37,2013-02-15 18:45:00,
2013-02-15 10:47:00,45.7,34.6,30.39,NNE,13,3.5,3.5,65,0.00,CLR,,0.01,584.4,WeatherDisplay:10.37,2013-02-15 18:47:00,
2013-02-15 10:48:00,45.9,35.2,30.39,North,355,2.3,2.3,66,0.00,CLR,,0.01,584.4,WeatherDisplay:10.37,2013-02-15 18:48:00,
2013-02-15 10:50:00,46.1,35.4,30.39,North,5,2.3,2.3,66,0.00,CLR,,0.01,582.0,WeatherDisplay:10.37,2013-02-15 18:50:00,
2013-02-15 10:51:00,46.2,35.1,30.39,NW,307,3.0,3.0,65,0.00,CLR,,0.01,584.4,WeatherDisplay:10.37,2013-02-15 18:51:00,
2013-02-15 10:52:00,46.4,34.9,30.39,WNW,299,2.3,2.3,64,0.00,CLR,,0.01,584.4,WeatherDisplay:10.37,2013-02-15 18:52:00,
2013-02-15 10:53:00,46.4,34.5,30.39,WNW,299,3.5,3.5,63,0.00,CLR,,0.01,588.0,WeatherDisplay:10.37,2013-02-15 18:53:00,
2013-02-15 10:55:00,46.3,34.8,30.39,WNW,299,1.1,1.1,64,0.00,CLR,,0.01,595.2,WeatherDisplay:10.37,2013-02-15 18:55:00,
2013-02-15 10:57:00,46.3,34.8,30.39,North,349,4.0,4.0,64,0.00,CLR,,0.01,598.8,WeatherDisplay:10.37,2013-02-15 18:57:00,
2013-02-15 10:58:00,46.4,34.9,30.39,NNW,338,2.3,2.3,64,0.00,CLR,,0.01,601.2,WeatherDisplay:10.37,2013-02-15 18:58:00,
2013-02-15 11:00:00,46.4,35.3,30.39,NNW,338,1.1,0.0,65,0.00,CLR,,0.01,601.2,WeatherDisplay:10.37,2013-02-15 19:00:00,
2013-02-15 11:02:00,47.0,35.8,30.39,NE,41,3.5,3.5,65,0.00,CLR,,0.01,607.2,WeatherDisplay:10.37,2013-02-15 19:02:00,
2013-02-15 11:03:00,47.5,35.1,30.38,North,9,3.5,3.5,62,0.00,CLR,,0.01,609.6,WeatherDisplay:10.37,2013-02-15 19:03:00,
2013-02-15 11:06:00,48.1,35.3,30.38,North,9,1.1,1.1,61,0.00,CLR,,0.01,604.8,WeatherDisplay:10.37,2013-02-15 19:06:00,
2013-02-15 11:07:00,48.4,35.6,30.38,North,9,0.0,0.0,61,0.00,CLR,,0.01,612.0,WeatherDisplay:10.37,2013-02-15 19:07:00,
2013-02-15 11:09:00,49.6,35.4,30.38,NE,36,1.1,1.1,58,0.00,CLR,,0.01,618.0,WeatherDisplay:10.37,2013-02-15 19:09:00,
2013-02-15 11:11:00,48.8,34.7,30.38,NE,36,2.0,2.0,58,0.00,CLR,,0.01,624.0,WeatherDisplay:10.37,2013-02-15 19:11:00,
2013-02-15 11:12:00,48.6,34.5,30.38,NNE,24,3.0,3.0,58,0.00,CLR,,0.01,624.0,WeatherDisplay:10.37,2013-02-15 19:12:00,
2013-02-15 11:14:00,48.7,35.0,30.38,NNE,24,2.3,2.3,59,0.00,CLR,,0.01,626.4,WeatherDisplay:10.37,2013-02-15 19:14:00,
2013-02-15 11:16:00,49.1,35.4,30.38,NE,36,3.5,3.5,59,0.00,CLR,,0.01,628.8,WeatherDisplay:10.37,2013-02-15 19:16:00,
2013-02-15 11:17:00,49.8,36.0,30.38,ESE,107,4.6,4.6,59,0.00,CLR,,0.01,631.2,WeatherDisplay:10.37,2013-02-15 19:17:00,
2013-02-15 11:19:00,51.1,35.9,30.38,East,91,4.6,4.6,56,0.00,CLR,,0.01,631.2,WeatherDisplay:10.37,2013-02-15 19:19:00,
2013-02-15 11:21:00,51.9,35.3,30.37,ESE,105,3.5,3.5,53,0.00,CLR,,0.01,632.4,WeatherDisplay:10.37,2013-02-15 19:21:00,
2013-02-15 11:22:00,52.0,35.4,30.37,East,93,1.1,1.1,53,0.00,CLR,,0.01,637.2,WeatherDisplay:10.37,2013-02-15 19:22:00,
2013-02-15 11:25:00,52.0,34.9,30.37,East,98,6.0,6.0,52,0.00,CLR,,0.01,637.2,WeatherDisplay:10.37,2013-02-15 19:25:00,
2013-02-15 11:26:00,52.1,35.5,30.37,ESE,102,6.9,6.9,53,0.00,CLR,,0.01,639.6,WeatherDisplay:10.37,2013-02-15 19:26:00,
2013-02-15 11:27:00,52.4,35.8,30.37,ESE,103,3.5,3.5,53,0.00,CLR,,0.01,640.8,WeatherDisplay:10.37,2013-02-15 19:27:00,
2013-02-15 11:30:00,52.3,35.7,30.37,ESE,111,3.5,3.5,53,0.00,CLR,,0.01,643.2,WeatherDisplay:10.37,2013-02-15 19:30:00,
2013-02-15 11:31:00,52.7,36.0,30.37,East,95,6.9,6.9,53,0.00,CLR,,0.01,645.6,WeatherDisplay:10.37,2013-02-15 19:31:00,
2013-02-15 11:33:00,53.3,35.6,30.37,East,99,6.9,6.9,51,0.00,CLR,,0.01,645.6,WeatherDisplay:10.37,2013-02-15 19:33:00,
2013-02-15 11:36:00,52.9,34.8,30.37,North,350,4.6,4.6,50,0.00,CLR,,0.01,649.2,WeatherDisplay:10.37,2013-02-15 19:36:00,
2013-02-15 11:38:00,51.9,34.8,30.37,NW,321,3.5,3.5,52,0.00,CLR,,0.01,651.6,WeatherDisplay:10.37,2013-02-15 19:38:00,
2013-02-15 11:39:00,51.6,34.5,30.36,NNW,341,3.5,3.5,52,0.00,CLR,,0.01,651.6,WeatherDisplay:10.37,2013-02-15 19:39:00,
2013-02-15 11:41:00,52.1,35.5,30.36,NE,38,4.6,4.6,53,0.00,CLR,,0.01,654.0,WeatherDisplay:10.37,2013-02-15 19:41:00,
2013-02-15 11:43:00,53.4,36.2,30.36,East,96,3.0,3.0,52,0.00,CLR,,0.01,654.0,WeatherDisplay:10.37,2013-02-15 19:43:00,
2013-02-15 11:44:00,53.7,36.0,30.36,East,95,8.1,8.1,51,0.00,CLR,,0.01,656.4,WeatherDisplay:10.37,2013-02-15 19:44:00,
2013-02-15 11:46:00,54.2,35.4,30.36,ESE,109,4.0,4.0,49,0.00,CLR,,0.01,657.6,WeatherDisplay:10.37,2013-02-15 19:46:00,
2013-02-15 11:47:00,54.5,35.7,30.36,East,93,3.5,3.5,49,0.00,CLR,,0.01,657.6,WeatherDisplay:10.37,2013-02-15 19:47:00,
2013-02-15 11:49:00,54.9,35.0,30.36,East,96,3.5,3.5,47,0.00,CLR,,0.01,656.4,WeatherDisplay:10.37,2013-02-15 19:49:00,
2013-02-15 11:52:00,54.8,36.0,30.36,East,99,3.5,3.5,49,0.00,CLR,,0.01,660.0,WeatherDisplay:10.37,2013-02-15 19:52:00,
2013-02-15 11:54:00,55.2,35.3,30.36,NE,39,3.5,3.5,47,0.00,CLR,,0.01,662.4,WeatherDisplay:10.37,2013-02-15 19:54:00,
2013-02-15 11:55:00,54.9,35.0,30.36,NE,34,3.5,3.5,47,0.00,CLR,,0.01,662.4,WeatherDisplay:10.37,2013-02-15 19:55:00,
2013-02-15 11:57:00,54.2,35.4,30.36,ESE,115,4.6,4.6,49,0.00,CLR,,0.01,664.8,WeatherDisplay:10.37,2013-02-15 19:57:00,
2013-02-15 11:59:00,54.7,35.4,30.35,NNW,340,4.0,4.0,48,0.00,CLR,,0.01,664.8,WeatherDisplay:10.37,2013-02-15 19:59:00,
2013-02-15 12:00:00,54.7,35.9,30.35,East,91,7.0,7.0,49,0.00,CLR,,0.01,664.8,WeatherDisplay:10.37,2013-02-15 20:00:00,
2013-02-15 12:02:00,55.9,35.9,30.35,East,92,6.0,6.0,47,0.00,CLR,,0.01,666.0,WeatherDisplay:10.37,2013-02-15 20:02:00,
2013-02-15 12:03:00,56.2,35.7,30.35,East,98,6.0,6.0,46,0.00,CLR,,0.01,666.0,WeatherDisplay:10.37,2013-02-15 20:03:00,
2013-02-15 12:04:00,56.5,36.0,30.35,ENE,71,4.6,4.6,46,0.00,CLR,,0.01,666.0,WeatherDisplay:10.37,2013-02-15 20:04:00,
2013-02-15 12:06:00,56.0,34.9,30.35,ENE,65,2.3,2.3,45,0.00,CLR,,0.01,668.4,WeatherDisplay:10.37,2013-02-15 20:06:00,
2013-02-15 12:08:00,55.1,35.2,30.35,East,90,3.0,3.0,47,0.00,CLR,,0.01,666.0,WeatherDisplay:10.37,2013-02-15 20:08:00,
2013-02-15 12:09:00,56.0,35.5,30.35,East,100,3.5,3.5,46,0.00,CLR,,0.01,668.4,WeatherDisplay:10.37,2013-02-15 20:09:00,
2013-02-15 12:11:00,56.4,35.3,30.34,ESE,110,3.5,3.5,45,0.00,CLR,,0.01,670.8,WeatherDisplay:10.37,2013-02-15 20:11:00,
2013-02-15 12:13:00,56.9,35.8,30.34,NE,46,3.5,3.5,45,0.00,CLR,,0.01,668.4,WeatherDisplay:10.37,2013-02-15 20:13:00,
2013-02-15 12:14:00,56.2,35.1,30.34,NE,35,3.5,3.5,45,0.00,CLR,,0.01,673.2,WeatherDisplay:10.37,2013-02-15 20:14:00,
2013-02-15 12:17:00,55.2,34.8,30.34,North,350,4.0,4.0,46,0.00,CLR,,0.01,666.0,WeatherDisplay:10.37,2013-02-15 20:17:00,
2013-02-15 12:18:00,54.8,34.9,30.34,NNW,343,3.5,3.5,47,0.00,CLR,,0.01,668.4,WeatherDisplay:10.37,2013-02-15 20:18:00,
2013-02-15 12:19:00,54.8,34.9,30.34,NE,42,3.5,3.5,47,0.00,CLR,,0.01,670.8,WeatherDisplay:10.37,2013-02-15 20:19:00,
2013-02-15 12:20:00,55.2,35.3,30.34,East,92,2.3,2.3,47,0.00,CLR,,0.01,668.4,WeatherDisplay:10.37,2013-02-15 20:20:00,
2013-02-15 12:22:00,56.3,35.8,30.34,East,82,3.5,3.5,46,0.00,CLR,,0.01,670.8,WeatherDisplay:10.37,2013-02-15 20:22:00,
2013-02-15 12:23:00,56.9,35.8,30.34,NE,46,3.5,3.5,45,0.00,CLR,,0.01,670.8,WeatherDisplay:10.37,2013-02-15 20:23:00,
2013-02-15 12:24:00,57.0,35.9,30.34,SE,142,3.5,3.5,45,0.00,CLR,,0.01,668.4,WeatherDisplay:10.37,2013-02-15 20:24:00,
2013-02-15 12:25:00,57.4,35.6,30.34,East,80,5.0,5.0,44,0.00,CLR,,0.01,670.8,WeatherDisplay:10.37,2013-02-15 20:25:00,
2013-02-15 12:27:00,56.7,35.0,30.33,East,84,2.0,2.0,44,0.00,CLR,,0.01,670.8,WeatherDisplay:10.37,2013-02-15 20:27:00,
2013-02-15 12:28:00,56.7,35.0,30.33,East,84,2.3,2.3,44,0.00,CLR,,0.01,670.8,WeatherDisplay:10.37,2013-02-15 20:28:00,
2013-02-15 12:29:00,56.8,35.1,30.33,NNE,27,2.3,2.3,44,0.00,CLR,,0.01,670.8,WeatherDisplay:10.37,2013-02-15 20:29:00,
2013-02-15 12:31:00,57.1,35.9,30.33,NNE,33,3.5,3.5,45,0.00,CLR,,0.01,668.4,WeatherDisplay:10.37,2013-02-15 20:31:00,
2013-02-15 12:32:00,56.3,34.6,30.33,NNE,21,3.5,3.5,44,0.00,CLR,,0.01,666.0,WeatherDisplay:10.37,2013-02-15 20:32:00,
2013-02-15 12:33:00,55.7,34.7,30.33,NNE,21,3.5,3.5,45,0.00,CLR,,0.01,668.4,WeatherDisplay:10.37,2013-02-15 20:33:00,
2013-02-15 12:34:00,55.5,34.5,30.33,NNE,21,1.1,1.1,45,0.00,CLR,,0.01,670.8,WeatherDisplay:10.37,2013-02-15 20:34:00,
2013-02-15 12:36:00,55.5,35.0,30.33,NNE,17,3.5,3.5,46,0.00,CLR,,0.01,668.4,WeatherDisplay:10.37,2013-02-15 20:36:00,
2013-02-15 12:38:00,55.9,35.4,30.33,NNE,17,2.3,2.3,46,0.00,CLR,,0.01,668.4,WeatherDisplay:10.37,2013-02-15 20:38:00,
2013-02-15 12:39:00,55.7,34.7,30.33,NNE,17,3.5,3.5,45,0.00,CLR,,0.01,670.8,WeatherDisplay:10.37,2013-02-15 20:39:00,
2013-02-15 12:42:00,55.8,35.3,30.33,NNE,15,2.0,2.0,46,0.00,CLR,,0.01,664.8,WeatherDisplay:10.37,2013-02-15 20:42:00,
2013-02-15 12:43:00,56.4,35.9,30.32,NE,35,2.3,2.3,46,0.00,CLR,,0.01,664.8,WeatherDisplay:10.37,2013-02-15 20:43:00,
2013-02-15 12:46:00,56.4,35.3,30.32,NNE,31,7.0,7.0,45,0.00,CLR,,0.01,664.8,WeatherDisplay:10.37,2013-02-15 20:46:00,
2013-02-15 12:47:00,56.5,35.4,30.32,NE,46,6.9,6.9,45,0.00,CLR,,0.01,664.8,WeatherDisplay:10.37,2013-02-15 20:47:00,
2013-02-15 12:49:00,57.7,36.5,30.32,NNE,25,2.0,2.0,45,0.00,CLR,,0.01,662.4,WeatherDisplay:10.37,2013-02-15 20:49:00,
2013-02-15 12:51:00,56.7,35.0,30.32,NNW,342,3.5,3.5,44,0.00,CLR,,0.01,662.4,WeatherDisplay:10.37,2013-02-15 20:51:00,
2013-02-15 12:52:00,56.1,34.5,30.32,North,360,4.0,4.0,44,0.00,CLR,,0.01,662.4,WeatherDisplay:10.37,2013-02-15 20:52:00,
2013-02-15 12:54:00,55.7,35.2,30.32,NNW,345,4.6,4.6,46,0.00,CLR,,0.01,662.4,WeatherDisplay:10.37,2013-02-15 20:54:00,
2013-02-15 12:56:00,56.2,35.7,30.31,NE,46,3.5,3.5,46,0.00,CLR,,0.01,657.6,WeatherDisplay:10.37,2013-02-15 20:56:00,
2013-02-15 12:57:00,56.5,35.4,30.31,NE,46,3.5,3.5,45,0.00,CLR,,0.01,656.4,WeatherDisplay:10.37,2013-02-15 20:57:00,
2013-02-15 12:59:00,56.8,35.7,30.31,ESE,107,3.5,3.5,45,0.00,CLR,,0.01,657.6,WeatherDisplay:10.37,2013-02-15 20:59:00,
2013-02-15 13:01:00,58.7,36.2,30.31,NE,34,3.5,3.5,43,0.00,CLR,,0.01,656.4,WeatherDisplay:10.37,2013-02-15 21:01:00,
2013-02-15 13:03:00,59.0,35.9,30.31,NE,53,2.3,2.3,42,0.00,CLR,,0.01,654.0,WeatherDisplay:10.37,2013-02-15 21:03:00,
2013-02-15 13:04:00,58.9,35.8,30.31,NE,50,3.5,3.5,42,0.00,CLR,,0.01,651.6,WeatherDisplay:10.37,2013-02-15 21:04:00,
2013-02-15 13:06:00,59.9,36.7,30.31,ESE,109,3.5,3.5,42,0.00,CLR,,0.01,654.0,WeatherDisplay:10.37,2013-02-15 21:06:00,
2013-02-15 13:08:00,60.4,35.9,30.31,ESE,109,2.3,2.3,40,0.00,CLR,,0.01,651.6,WeatherDisplay:10.37,2013-02-15 21:08:00,
2013-02-15 13:09:00,60.4,35.3,30.31,ESE,112,1.1,1.1,39,0.00,CLR,,0.01,651.6,WeatherDisplay:10.37,2013-02-15 21:09:00,
2013-02-15 13:10:00,60.4,35.3,30.31,East,88,1.0,4.0,39,0.00,CLR,,0.01,649.2,WeatherDisplay:10.37,2013-02-15 21:10:00,
2013-02-15 13:12:00,60.3,35.9,30.30,North,350,4.0,4.0,40,0.00,CLR,,0.01,648.0,WeatherDisplay:10.37,2013-02-15 21:12:00,
2013-02-15 13:13:00,59.0,35.3,30.30,NNE,12,3.5,3.5,41,0.00,CLR,,0.01,645.6,WeatherDisplay:10.37,2013-02-15 21:13:00,
2013-02-15 13:14:00,59.0,35.3,30.30,NNE,12,3.5,3.5,41,0.00,CLR,,0.01,645.6,WeatherDisplay:10.37,2013-02-15 21:14:00,
2013-02-15 13:15:00,58.6,34.9,30.30,NE,54,1.0,4.0,41,0.00,CLR,,0.01,643.2,WeatherDisplay:10.37,2013-02-15 21:15:00,
2013-02-15 13:17:00,57.3,35.0,30.29,North,360,4.6,4.6,43,0.00,CLR,,0.01,643.2,WeatherDisplay:10.37,2013-02-15 21:17:00,
2013-02-15 13:19:00,56.9,35.2,30.29,North,5,4.0,4.0,44,0.00,CLR,,0.01,640.8,WeatherDisplay:10.37,2013-02-15 21:19:00,
2013-02-15 13:20:00,56.8,35.1,30.29,NNE,13,2.0,5.0,44,0.00,CLR,,0.01,639.6,WeatherDisplay:10.37,2013-02-15 21:20:00,
2013-02-15 13:22:00,58.6,36.7,30.29,ESE,108,3.5,3.5,44,0.00,CLR,,0.01,634.8,WeatherDisplay:10.37,2013-02-15 21:22:00,
2013-02-15 13:24:00,60.9,37.0,30.29,ESE,110,9.2,9.2,41,0.00,CLR,,0.01,637.2,WeatherDisplay:10.37,2013-02-15 21:24:00,
2013-02-15 13:25:00,62.1,36.8,30.29,ESE,110,3.5,3.5,39,0.00,CLR,,0.01,634.8,WeatherDisplay:10.37,2013-02-15 21:25:00,
2013-02-15 13:27:00,62.4,35.8,30.29,ESE,113,4.6,4.6,37,0.00,CLR,,0.01,632.4,WeatherDisplay:10.37,2013-02-15 21:27:00,
2013-02-15 13:29:00,62.0,35.4,30.29,SW,227,3.5,3.5,37,0.00,CLR,,0.01,631.2,WeatherDisplay:10.37,2013-02-15 21:29:00,
2013-02-15 13:30:00,61.5,35.0,30.29,SW,229,3.5,3.5,37,0.00,CLR,,0.01,628.8,WeatherDisplay:10.37,2013-02-15 21:30:00,
2013-02-15 13:32:00,62.2,36.3,30.29,East,89,3.5,3.5,38,0.00,CLR,,0.01,626.4,WeatherDisplay:10.37,2013-02-15 21:32:00,
2013-02-15 13:34:00,63.7,36.2,30.29,ESE,115,5.0,5.0,36,0.00,CLR,,0.01,624.0,WeatherDisplay:10.37,2013-02-15 21:34:00,
2013-02-15 13:35:00,63.8,36.3,30.29,ESE,118,5.0,5.0,36,0.00,CLR,,0.01,624.0,WeatherDisplay:10.37,2013-02-15 21:35:00,
2013-02-15 13:37:00,63.0,34.2,30.28,East,94,6.9,6.9,34,0.00,CLR,,0.01,620.4,WeatherDisplay:10.37,2013-02-15 21:37:00,
2013-02-15 13:40:00,62.8,35.4,30.28,SE,125,7.0,10.0,36,0.00,CLR,,0.01,618.0,WeatherDisplay:10.37,2013-02-15 21:40:00,
2013-02-15 13:41:00,63.1,35.0,30.29,SE,132,10.4,10.4,35,0.00,CLR,,0.01,615.6,WeatherDisplay:10.37,2013-02-15 21:41:00,
2013-02-15 13:42:00,63.1,35.0,30.29,ESE,110,8.1,8.1,35,0.00,CLR,,0.01,615.6,WeatherDisplay:10.37,2013-02-15 21:42:00,
2013-02-15 13:45:00,63.3,35.1,30.28,ESE,114,5.0,9.0,35,0.00,CLR,,0.01,609.6,WeatherDisplay:10.37,2013-02-15 21:45:00,
2013-02-15 13:46:00,63.5,35.3,30.28,ESE,104,9.2,9.2,35,0.00,CLR,,0.01,609.6,WeatherDisplay:10.37,2013-02-15 21:46:00,
2013-02-15 13:48:00,63.8,35.6,30.28,ESE,112,3.5,3.5,35,0.00,CLR,,0.01,604.8,WeatherDisplay:10.37,2013-02-15 21:48:00,
2013-02-15 13:50:00,64.1,35.1,30.28,ESE,112,1.1,0.0,34,0.00,CLR,,0.01,601.2,WeatherDisplay:10.37,2013-02-15 21:50:00,
2013-02-15 13:51:00,64.2,35.2,30.28,ESE,112,1.1,1.1,34,0.00,CLR,,0.01,601.2,WeatherDisplay:10.37,2013-02-15 21:51:00,
2013-02-15 13:52:00,65.2,35.4,30.28,ESE,116,3.5,3.5,33,0.00,CLR,,0.01,598.8,WeatherDisplay:10.37,2013-02-15 21:52:00,
2013-02-15 13:53:00,65.4,35.5,30.28,East,97,4.6,4.6,33,0.00,CLR,,0.01,598.8,WeatherDisplay:10.37,2013-02-15 21:53:00,
2013-02-15 13:55:00,65.7,35.8,30.27,ESE,109,6.9,6.9,33,0.00,CLR,,0.01,596.4,WeatherDisplay:10.37,2013-02-15 21:55:00,
2013-02-15 13:56:00,65.6,34.9,30.28,East,98,6.9,6.9,32,0.00,CLR,,0.01,592.8,WeatherDisplay:10.37,2013-02-15 21:56:00,
2013-02-15 13:57:00,65.3,35.4,30.28,ESE,111,6.9,6.9,33,0.00,CLR,,0.01,590.4,WeatherDisplay:10.37,2013-02-15 21:57:00,
2013-02-15 13:58:00,65.1,35.3,30.28,East,101,5.8,5.8,33,0.00,CLR,,0.01,590.4,WeatherDisplay:10.37,2013-02-15 21:58:00,
2013-02-15 14:00:00,65.0,35.2,30.27,East,99,3.5,3.5,33,0.00,CLR,,0.01,586.8,WeatherDisplay:10.37,2013-02-15 22:00:00,
2013-02-15 14:01:00,65.0,35.2,30.27,ESE,119,3.0,3.0,33,0.00,CLR,,0.01,584.4,WeatherDisplay:10.37,2013-02-15 22:01:00,
2013-02-15 14:02:00,65.2,35.4,30.27,ESE,120,4.6,4.6,33,0.00,CLR,,0.01,582.0,WeatherDisplay:10.37,2013-02-15 22:02:00,
2013-02-15 14:03:00,65.5,34.8,30.27,SE,128,3.5,3.5,32,0.00,CLR,,0.01,579.6,WeatherDisplay:10.37,2013-02-15 22:03:00,
2013-02-15 14:06:00,64.5,34.7,30.27,ESE,120,3.5,3.5,33,0.00,CLR,,0.01,576.0,WeatherDisplay:10.37,2013-02-15 22:06:00,
2013-02-15 14:07:00,63.9,35.0,30.27,ESE,107,1.1,1.1,34,0.00,CLR,,0.01,571.2,WeatherDisplay:10.37,2013-02-15 22:07:00,
2013-02-15 14:08:00,64.1,34.4,30.27,SE,146,3.5,3.5,33,0.00,CLR,,0.01,570.0,WeatherDisplay:10.37,2013-02-15 22:08:00,
2013-02-15 14:11:00,62.7,33.9,30.27,SE,146,3.5,3.5,34,0.00,CLR,,0.01,565.2,WeatherDisplay:10.37,2013-02-15 22:11:00,
2013-02-15 14:12:00,61.8,33.8,30.27,SSW,213,4.6,4.6,35,0.00,CLR,,0.01,562.8,WeatherDisplay:10.37,2013-02-15 22:12:00,
2013-02-15 14:13:00,61.7,33.7,30.27,SSW,213,4.6,4.6,35,0.00,CLR,,0.01,562.8,WeatherDisplay:10.37,2013-02-15 22:13:00,
2013-02-15 14:16:00,63.6,36.1,30.27,ESE,105,6.9,6.9,36,0.00,CLR,,0.01,556.8,WeatherDisplay:10.37,2013-02-15 22:16:00,
2013-02-15 14:17:00,64.4,35.4,30.27,ESE,114,4.0,4.0,34,0.00,CLR,,0.01,553.2,WeatherDisplay:10.37,2013-02-15 22:17:00,
2013-02-15 14:18:00,64.5,35.5,30.27,SE,126,4.6,4.6,34,0.00,CLR,,0.01,553.2,WeatherDisplay:10.37,2013-02-15 22:18:00,
2013-02-15 14:21:00,64.7,34.9,30.26,ESE,115,0.0,0.0,33,0.00,CLR,,0.01,544.8,WeatherDisplay:10.37,2013-02-15 22:21:00,
2013-02-15 14:23:00,64.6,35.6,30.26,ESE,113,4.6,4.6,34,0.00,CLR,,0.01,540.0,WeatherDisplay:10.37,2013-02-15 22:23:00,
2013-02-15 14:24:00,65.4,35.5,30.26,ESE,105,4.0,4.0,33,0.00,CLR,,0.01,535.2,WeatherDisplay:10.37,2013-02-15 22:24:00,
2013-02-15 14:26:00,65.8,35.9,30.26,ESE,111,7.0,7.0,33,0.00,CLR,,0.01,531.6,WeatherDisplay:10.37,2013-02-15 22:26:00,
2013-02-15 14:28:00,65.9,35.2,30.26,ESE,103,8.1,8.1,32,0.00,CLR,,0.01,529.2,WeatherDisplay:10.37,2013-02-15 22:28:00,
2013-02-15 14:29:00,65.9,35.2,30.26,ESE,119,4.6,4.6,32,0.00,CLR,,0.01,529.2,WeatherDisplay:10.37,2013-02-15 22:29:00,
2013-02-15 14:32:00,66.0,34.5,30.26,ESE,118,6.9,6.9,31,0.00,CLR,,0.01,518.4,WeatherDisplay:10.37,2013-02-15 22:32:00,
2013-02-15 14:33:00,65.4,34.8,30.26,ESE,102,8.1,8.1,32,0.00,CLR,,0.01,518.4,WeatherDisplay:10.37,2013-02-15 22:33:00,
2013-02-15 14:34:00,65.3,34.7,30.26,East,96,5.8,5.8,32,0.00,CLR,,0.01,517.2,WeatherDisplay:10.37,2013-02-15 22:34:00,
2013-02-15 14:37:00,65.9,35.2,30.26,ESE,114,3.5,3.5,32,0.00,CLR,,0.01,510.0,WeatherDisplay:10.37,2013-02-15 22:37:00,
2013-02-15 14:38:00,65.6,34.9,30.26,ESE,114,1.1,1.1,32,0.00,CLR,,0.01,508.8,WeatherDisplay:10.37,2013-02-15 22:38:00,
2013-02-15 14:39:00,65.9,35.2,30.26,East,96,4.6,4.6,32,0.00,CLR,,0.01,506.4,WeatherDisplay:10.37,2013-02-15 22:39:00,
2013-02-15 14:42:00,64.9,35.1,30.26,East,96,2.3,2.3,33,0.00,CLR,,0.01,498.0,WeatherDisplay:10.37,2013-02-15 22:42:00,
2013-02-15 14:43:00,65.5,35.6,30.26,East,94,4.6,4.6,33,0.00,CLR,,0.01,492.0,WeatherDisplay:10.37,2013-02-15 22:43:00,
2013-02-15 14:44:00,65.6,35.7,30.26,ESE,121,4.6,4.6,33,0.00,CLR,,0.01,492.0,WeatherDisplay:10.37,2013-02-15 22:44:00,
2013-02-15 14:47:00,66.3,35.5,30.25,East,92,4.6,4.6,32,0.00,CLR,,0.01,483.6,WeatherDisplay:10.37,2013-02-15 22:47:00,
2013-02-15 14:49:00,66.6,35.0,30.25,ENE,64,3.5,3.5,31,0.00,CLR,,0.01,476.4,WeatherDisplay:10.37,2013-02-15 22:49:00,
2013-02-15 14:53:00,65.5,34.8,30.25,SE,124,4.6,4.6,32,0.00,CLR,,0.01,470.4,WeatherDisplay:10.37,2013-02-15 22:53:00,
2013-02-15 14:54:00,65.6,34.9,30.25,SE,146,4.6,4.6,32,0.00,CLR,,0.01,468.0,WeatherDisplay:10.37,2013-02-15 22:54:00,
2013-02-15 14:58:00,65.4,35.5,30.25,East,92,5.8,5.8,33,0.00,CLR,,0.01,456.0,WeatherDisplay:10.37,2013-02-15 22:58:00,
2013-02-15 14:59:00,65.5,34.8,30.25,East,92,3.5,3.5,32,0.00,CLR,,0.01,453.6,WeatherDisplay:10.37,2013-02-15 22:59:00,
2013-02-15 15:04:00,66.0,35.3,30.25,East,97,4.6,4.6,32,0.00,CLR,,0.01,439.2,WeatherDisplay:10.37,2013-02-15 23:04:00,
2013-02-15 15:05:00,66.3,35.5,30.25,SE,126,4.6,4.6,32,0.00,CLR,,0.01,436.8,WeatherDisplay:10.37,2013-02-15 23:05:00,
2013-02-15 15:09:00,64.6,34.1,30.25,ENE,59,4.6,4.6,32,0.00,CLR,,0.01,423.6,WeatherDisplay:10.37,2013-02-15 23:09:00,
2013-02-15 15:10:00,64.1,34.4,30.25,ENE,78,5.0,5.0,33,0.00,CLR,,0.01,420.0,WeatherDisplay:10.37,2013-02-15 23:10:00,
2013-02-15 15:14:00,64.1,35.1,30.25,East,101,1.1,1.1,34,0.00,CLR,,0.01,411.6,WeatherDisplay:10.37,2013-02-15 23:14:00,
2013-02-15 15:15:00,64.3,35.3,30.25,North,351,5.0,5.0,34,0.00,CLR,,0.01,406.8,WeatherDisplay:10.37,2013-02-15 23:15:00,
2013-02-15 15:19:00,60.9,36.4,30.25,NNW,344,6.9,6.9,40,0.00,CLR,,0.01,392.4,WeatherDisplay:10.37,2013-02-15 23:19:00,
2013-02-15 15:20:00,60.0,36.8,30.25,NW,315,3.5,3.5,42,0.00,CLR,,0.01,390.0,WeatherDisplay:10.37,2013-02-15 23:20:00,
2013-02-15 15:21:00,59.6,36.5,30.25,West,281,5.0,5.0,42,0.00,CLR,,0.01,387.6,WeatherDisplay:10.37,2013-02-15 23:21:00,
2013-02-15 15:24:00,57.9,37.2,30.25,NW,304,7.0,7.0,46,0.00,CLR,,0.01,379.2,WeatherDisplay:10.37,2013-02-15 23:24:00,
2013-02-15 15:25:00,57.6,37.5,30.25,NNW,329,6.9,6.9,47,0.00,CLR,,0.01,373.2,WeatherDisplay:10.37,2013-02-15 23:25:00,
2013-02-15 15:26:00,57.4,37.3,30.25,WNW,302,6.9,6.9,47,0.00,CLR,,0.01,373.2,WeatherDisplay:10.37,2013-02-15 23:26:00,
2013-02-15 15:30:00,56.7,37.7,30.25,NW,307,7.0,7.0,49,0.00,CLR,,0.01,362.4,WeatherDisplay:10.37,2013-02-15 23:30:00,
2013-02-15 15:31:00,56.3,37.4,30.25,WNW,300,10.4,10.4,49,0.00,CLR,,0.01,362.4,WeatherDisplay:10.37,2013-02-15 23:31:00,
2013-02-15 15:35:00,55.9,38.0,30.25,WNW,296,8.1,8.1,51,0.00,CLR,,0.01,350.4,WeatherDisplay:10.37,2013-02-15 23:35:00,
2013-02-15 15:36:00,55.9,38.0,30.25,NW,306,8.1,8.1,51,0.00,CLR,,0.01,348.0,WeatherDisplay:10.37,2013-02-15 23:36:00,
2013-02-15 15:40:00,55.9,38.0,30.25,NW,308,8.1,8.1,51,0.00,CLR,,0.01,333.6,WeatherDisplay:10.37,2013-02-15 23:40:00,
2013-02-15 15:41:00,55.9,38.0,30.25,NW,322,5.8,5.8,51,0.00,CLR,,0.01,331.2,WeatherDisplay:10.37,2013-02-15 23:41:00,
2013-02-15 15:42:00,56.0,38.1,30.25,NW,319,8.1,8.1,51,0.00,CLR,,0.01,326.4,WeatherDisplay:10.37,2013-02-15 23:42:00,
2013-02-15 15:45:00,55.3,38.0,30.25,NW,321,9.2,9.2,52,0.00,CLR,,0.01,316.8,WeatherDisplay:10.37,2013-02-15 23:45:00,
2013-02-15 15:46:00,55.3,38.0,30.25,NW,321,9.2,9.2,52,0.00,CLR,,0.01,316.8,WeatherDisplay:10.37,2013-02-15 23:46:00,
2013-02-15 15:47:00,55.0,37.7,30.25,North,360,4.6,4.6,52,0.00,CLR,,0.01,308.4,WeatherDisplay:10.37,2013-02-15 23:47:00,
2013-02-15 15:50:00,55.4,38.1,30.25,WNW,298,3.5,3.5,52,0.00,CLR,,0.01,292.8,WeatherDisplay:10.37,2013-02-15 23:50:00,
2013-02-15 15:51:00,55.4,38.1,30.25,NW,309,4.0,4.0,52,0.00,CLR,,0.01,292.8,WeatherDisplay:10.37,2013-02-15 23:51:00,
2013-02-15 15:52:00,55.3,38.0,30.25,WNW,296,6.9,6.9,52,0.00,CLR,,0.01,289.2,WeatherDisplay:10.37,2013-02-15 23:52:00,
2013-02-15 15:55:00,54.9,38.1,30.25,WNW,298,4.6,4.6,53,0.00,CLR,,0.01,276.0,WeatherDisplay:10.37,2013-02-15 23:55:00,
2013-02-15 15:56:00,54.9,38.1,30.25,WNW,298,4.6,4.6,53,0.00,CLR,,0.01,276.0,WeatherDisplay:10.37,2013-02-15 23:56:00,
2013-02-15 15:57:00,55.1,38.3,30.25,NW,310,4.6,4.6,53,0.00,CLR,,0.01,274.8,WeatherDisplay:10.37,2013-02-15 23:57:00,
2013-02-15 16:00:00,54.9,38.1,30.25,WNW,302,5.8,5.8,53,0.00,CLR,,0.01,255.6,WeatherDisplay:10.37,2013-02-16 00:00:00,
2013-02-15 16:01:00,54.8,38.0,30.25,NW,318,5.8,5.8,53,0.00,CLR,,0.01,255.6,WeatherDisplay:10.37,2013-02-16 00:01:00,
2013-02-15 16:02:00,54.7,37.9,30.25,WNW,302,5.0,5.0,53,0.00,CLR,,0.01,250.8,WeatherDisplay:10.37,2013-02-16 00:02:00,
2013-02-15 16:03:00,54.5,37.7,30.25,NW,319,6.0,6.0,53,0.00,CLR,,0.01,248.4,WeatherDisplay:10.37,2013-02-16 00:03:00,
2013-02-15 16:06:00,53.8,37.5,30.24,WNW,302,9.2,9.2,54,0.00,CLR,,0.01,234.0,WeatherDisplay:10.37,2013-02-16 00:06:00,
2013-02-15 16:07:00,53.7,37.9,30.24,NW,309,5.8,5.8,55,0.00,CLR,,0.01,228.0,WeatherDisplay:10.37,2013-02-16 00:07:00,
2013-02-15 16:08:00,53.7,37.4,30.24,NW,314,5.8,5.8,54,0.00,CLR,,0.01,228.0,WeatherDisplay:10.37,2013-02-16 00:08:00,
2013-02-15 16:11:00,53.8,37.5,30.24,NW,317,3.5,3.5,54,0.00,CLR,,0.01,213.6,WeatherDisplay:10.37,2013-02-16 00:11:00,
2013-02-15 16:12:00,53.9,37.6,30.24,NW,310,4.6,4.6,54,0.00,CLR,,0.01,206.4,WeatherDisplay:10.37,2013-02-16 00:12:00,
2013-02-15 16:13:00,53.9,37.6,30.24,NNW,336,3.5,3.5,54,0.00,CLR,,0.01,202.8,WeatherDisplay:10.37,2013-02-16 00:13:00,
2013-02-15 16:16:00,54.1,37.8,30.24,NNW,344,3.5,3.5,54,0.00,CLR,,0.01,195.6,WeatherDisplay:10.37,2013-02-16 00:16:00,
2013-02-15 16:18:00,54.1,37.8,30.24,NW,313,5.0,5.0,54,0.00,CLR,,0.01,186.0,WeatherDisplay:10.37,2013-02-16 00:18:00,
2013-02-15 16:21:00,53.9,37.6,30.24,NW,317,3.5,3.5,54,0.00,CLR,,0.01,170.4,WeatherDisplay:10.37,2013-02-16 00:21:00,
2013-02-15 16:22:00,53.8,37.5,30.24,WNW,298,4.0,4.0,54,0.00,CLR,,0.01,170.4,WeatherDisplay:10.37,2013-02-16 00:22:00,
2013-02-15 16:23:00,53.7,37.9,30.24,NW,306,4.6,4.6,55,0.00,CLR,,0.01,164.4,WeatherDisplay:10.37,2013-02-16 00:23:00,
2013-02-15 16:24:00,53.5,37.7,30.24,NW,307,6.9,6.9,55,0.00,CLR,,0.01,162.0,WeatherDisplay:10.37,2013-02-16 00:24:00,
2013-02-15 16:26:00,53.3,38.0,30.23,NW,314,3.5,3.5,56,0.00,CLR,,0.01,156.0,WeatherDisplay:10.37,2013-02-16 00:26:00,
2013-02-15 16:27:00,53.4,38.1,30.23,WNW,300,3.5,3.5,56,0.00,CLR,,0.01,150.0,WeatherDisplay:10.37,2013-02-16 00:27:00,
2013-02-15 16:28:00,53.5,38.2,30.24,WNW,286,5.0,5.0,56,0.00,CLR,,0.01,145.2,WeatherDisplay:10.37,2013-02-16 00:28:00,
2013-02-15 16:30:00,53.6,37.8,30.23,West,280,6.0,6.0,55,0.00,CLR,,0.01,135.6,WeatherDisplay:10.37,2013-02-16 00:30:00,
2013-02-15 16:31:00,53.6,37.8,30.23,WNW,285,6.9,6.9,55,0.00,CLR,,0.01,135.6,WeatherDisplay:10.37,2013-02-16 00:31:00,
2013-02-15 16:32:00,53.5,37.3,30.23,WNW,296,5.8,5.8,54,0.00,CLR,,0.01,128.4,WeatherDisplay:10.37,2013-02-16 00:32:00,
2013-02-15 16:33:00,53.4,37.2,30.23,NW,307,5.8,5.8,54,0.00,CLR,,0.01,126.0,WeatherDisplay:10.37,2013-02-16 00:33:00,
2013-02-15 16:36:00,53.4,37.6,30.23,WNW,296,4.6,4.6,55,0.00,CLR,,0.01,116.4,WeatherDisplay:10.37,2013-02-16 00:36:00,
2013-02-15 16:38:00,53.5,37.7,30.23,NW,316,2.3,2.3,55,0.00,CLR,,0.01,109.2,WeatherDisplay:10.37,2013-02-16 00:38:00,
2013-02-15 16:41:00,53.4,37.6,30.23,NW,313,3.5,3.5,55,0.00,CLR,,0.01,99.6,WeatherDisplay:10.37,2013-02-16 00:41:00,
2013-02-15 16:43:00,53.2,37.4,30.23,NW,317,3.5,3.5,55,0.00,CLR,,0.01,92.4,WeatherDisplay:10.37,2013-02-16 00:43:00,
2013-02-15 16:46:00,52.9,37.6,30.23,NW,312,3.5,3.5,56,0.00,CLR,,0.01,82.8,WeatherDisplay:10.37,2013-02-16 00:46:00,
2013-02-15 16:48:00,52.8,37.5,30.23,NW,312,3.5,3.5,56,0.00,CLR,,0.01,75.6,WeatherDisplay:10.37,2013-02-16 00:48:00,
2013-02-15 16:51:00,52.6,37.3,30.23,NW,315,3.5,3.5,56,0.00,CLR,,0.01,64.8,WeatherDisplay:10.37,2013-02-16 00:51:00,
2013-02-15 16:53:00,52.4,37.6,30.23,NW,309,4.6,4.6,57,0.00,CLR,,0.01,58.8,WeatherDisplay:10.37,2013-02-16 00:53:00,
2013-02-15 16:56:00,52.1,37.3,30.23,NW,306,5.0,5.0,57,0.00,FEW,,0.01,52.8,WeatherDisplay:10.37,2013-02-16 00:56:00,
2013-02-15 16:57:00,52.1,37.3,30.23,NW,306,4.6,4.6,57,0.00,FEW,,0.01,52.8,WeatherDisplay:10.37,2013-02-16 00:57:00,
2013-02-15 16:58:00,51.8,37.5,30.23,WNW,296,4.6,4.8,58,0.00,FEW,,0.01,44.4,WeatherDisplay:10.37,2013-02-16 00:58:00,
2013-02-15 16:59:00,51.8,37.5,30.23,NW,316,5.8,5.8,58,0.00,FEW,,0.01,44.4,WeatherDisplay:10.37,2013-02-16 00:59:00,
2013-02-15 17:01:00,51.4,37.1,30.23,WNW,300,3.5,3.5,58,0.00,BKN,,0.01,22.8,WeatherDisplay:10.37,2013-02-16 01:01:00,
2013-02-15 17:02:00,51.4,37.1,30.23,WNW,300,3.5,3.5,58,0.00,BKN,,0.01,22.8,WeatherDisplay:10.37,2013-02-16 01:02:00,
2013-02-15 17:04:00,51.2,37.4,30.22,NW,321,4.6,4.6,59,0.00,BKN,,0.01,21.6,WeatherDisplay:10.37,2013-02-16 01:04:00,
2013-02-15 17:07:00,50.9,37.1,30.22,NW,309,4.0,4.0,59,0.00,BKN,,0.01,21.6,WeatherDisplay:10.37,2013-02-16 01:07:00,
2013-02-15 17:09:00,50.7,37.3,30.22,WNW,300,4.6,4.6,60,0.00,BKN,,0.01,19.2,WeatherDisplay:10.37,2013-02-16 01:09:00,
2013-02-15 17:12:00,50.5,37.1,30.22,NW,304,4.6,4.6,60,0.00,SCT,,0.01,19.2,WeatherDisplay:10.37,2013-02-16 01:12:00,
2013-02-15 17:14:00,50.3,37.4,30.22,NW,304,5.8,5.8,61,0.00,SCT,,0.01,16.8,WeatherDisplay:10.37,2013-02-16 01:14:00,
2013-02-15 17:17:00,50.0,37.1,30.22,NW,313,4.6,4.6,61,0.00,SCT,,0.01,14.4,WeatherDisplay:10.37,2013-02-16 01:17:00,
2013-02-15 17:18:00,49.9,37.0,30.22,NW,306,4.6,4.6,61,0.00,SCT,,0.01,14.4,WeatherDisplay:10.37,2013-02-16 01:18:00,
2013-02-15 17:19:00,49.8,36.9,30.22,NW,306,3.5,3.5,61,0.00,SCT,,0.01,14.4,WeatherDisplay:10.37,2013-02-16 01:19:00,
2013-02-15 17:22:00,49.5,37.0,30.22,WNW,293,4.6,4.6,62,0.00,CLR,,0.01,13.2,WeatherDisplay:10.37,2013-02-16 01:22:00,
2013-02-15 17:23:00,49.5,37.0,30.22,WNW,293,3.5,3.5,62,0.00,CLR,,0.01,13.2,WeatherDisplay:10.37,2013-02-16 01:23:00,
2013-02-15 17:24:00,49.4,36.9,30.22,WNW,295,4.6,4.6,62,0.00,CLR,,0.01,10.8,WeatherDisplay:10.37,2013-02-16 01:24:00,
2013-02-15 17:28:00,49.2,37.1,30.22,WNW,297,5.8,5.8,63,0.00,CLR,,0.01,10.8,WeatherDisplay:10.37,2013-02-16 01:28:00,
2013-02-15 17:29:00,49.1,37.0,30.22,WNW,297,5.8,5.8,63,0.00,,,0.01,8.4,WeatherDisplay:10.37,2013-02-16 01:29:00,
2013-02-15 17:33:00,48.7,36.7,30.23,WNW,291,3.5,3.5,63,0.00,,,0.01,6.0,WeatherDisplay:10.37,2013-02-16 01:33:00,
2013-02-15 17:34:00,48.6,37.0,30.23,WNW,299,3.5,3.5,64,0.00,,,0.01,6.0,WeatherDisplay:10.37,2013-02-16 01:34:00,
2013-02-15 17:35:00,48.5,36.9,30.23,WNW,302,3.5,3.5,64,0.00,,,0.01,6.0,WeatherDisplay:10.37,2013-02-16 01:35:00,
2013-02-15 17:38:00,48.3,36.7,30.23,WNW,302,3.5,3.5,64,0.00,,,0.01,0.0,WeatherDisplay:10.37,2013-02-16 01:38:00,
2013-02-15 17:39:00,48.2,36.6,30.22,WNW,302,3.5,3.5,64,0.00,,,0.01,0.0,WeatherDisplay:10.37,2013-02-16 01:39:00,
2013-02-15 17:40:00,48.1,36.5,30.23,WNW,302,3.5,3.5,64,0.00,,,0.01,0.0,WeatherDisplay:10.37,2013-02-16 01:40:00,
2013-02-15 17:41:00,48.0,36.8,30.23,WNW,300,3.5,3.5,65,0.00,,,0.01,0.0,WeatherDisplay:10.37,2013-02-16 01:41:00,
2013-02-15 17:44:00,47.9,36.7,30.22,WNW,300,3.5,3.5,65,0.00,,,0.01,0.0,WeatherDisplay:10.37,2013-02-16 01:44:00,
2013-02-15 17:45:00,47.9,36.6,30.22,WNW,301,2.0,4.0,65,0.00,,,0.01,0.0,WeatherDisplay:10.37,2013-02-16 01:45:00,
2013-02-15 17:46:00,47.7,36.5,30.22,WNW,300,3.5,3.5,65,0.00,,,0.01,0.0,WeatherDisplay:10.37,2013-02-16 01:46:00,
2013-02-15 17:49:00,47.5,36.3,30.22,WNW,299,2.3,2.3,65,0.00,,,0.01,0.0,WeatherDisplay:10.37,2013-02-16 01:49:00,
2013-02-15 17:50:00,47.4,36.6,30.22,WNW,299,4.0,4.0,66,0.00,,,0.01,0.0,WeatherDisplay:10.37,2013-02-16 01:50:00,
2013-02-15 17:51:00,47.4,36.6,30.22,WNW,299,3.5,3.5,66,0.00,,,0.01,0.0,WeatherDisplay:10.37,2013-02-16 01:51:00,
2013-02-15 17:54:00,47.1,36.3,30.22,WNW,299,2.3,2.3,66,0.00,,,0.01,0.0,WeatherDisplay:10.37,2013-02-16 01:54:00,
2013-02-15 17:55:00,47.1,36.3,30.22,WNW,299,2.3,2.3,66,0.00,,,0.01,0.0,WeatherDisplay:10.37,2013-02-16 01:55:00,
2013-02-15 17:57:00,46.9,36.5,30.22,WNW,299,2.3,2.3,67,0.00,,,0.01,0.0,WeatherDisplay:10.37,2013-02-16 01:57:00,
2013-02-15 17:59:00,46.7,36.3,30.22,WNW,299,3.5,3.5,67,0.00,,,0.01,0.0,WeatherDisplay:10.37,2013-02-16 01:59:00,
2013-02-15 18:00:00,46.7,36.3,30.23,WNW,299,3.5,3.5,67,0.00,,,0.01,0.0,WeatherDisplay:10.37,2013-02-16 02:00:00,
2013-02-15 18:01:00,46.6,36.2,30.23,WNW,299,3.5,3.5,67,0.00,,,0.01,0.0,WeatherDisplay:10.37,2013-02-16 02:01:00,
2013-02-15 18:02:00,46.5,36.1,30.22,WNW,299,2.3,2.3,67,0.00,,,0.01,0.0,WeatherDisplay:10.37,2013-02-16 02:02:00,
2013-02-15 18:04:00,46.3,36.3,30.22,WNW,299,2.3,2.3,68,0.00,,,0.01,0.0,WeatherDisplay:10.37,2013-02-16 02:04:00,
2013-02-15 18:05:00,46.3,36.3,30.22,WNW,299,3.5,3.5,68,0.00,,,0.01,0.0,WeatherDisplay:10.37,2013-02-16 02:05:00,
2013-02-15 18:06:00,46.2,36.2,30.22,WNW,299,2.3,2.3,68,0.00,,,0.01,0.0,WeatherDisplay:10.37,2013-02-16 02:06:00,
2013-02-15 18:07:00,46.1,36.1,30.22,WNW,299,2.3,2.3,68,0.00,,,0.01,0.0,WeatherDisplay:10.37,2013-02-16 02:07:00,
2013-02-15 18:09:00,46.0,36.0,30.22,WNW,299,2.3,2.3,68,0.00,,,0.01,0.0,WeatherDisplay:10.37,2013-02-16 02:09:00,
2013-02-15 18:10:00,46.0,36.0,30.22,WNW,299,2.3,2.3,68,0.00,,,0.01,0.0,WeatherDisplay:10.37,2013-02-16 02:10:00,
2013-02-15 18:11:00,46.0,36.0,30.22,WNW,299,2.3,2.3,68,0.00,,,0.01,0.0,WeatherDisplay:10.37,2013-02-16 02:11:00,
2013-02-15 18:15:00,45.7,36.1,30.22,WNW,299,2.3,2.3,69,0.00,,,0.01,0.0,WeatherDisplay:10.37,2013-02-16 02:15:00,
2013-02-15 18:16:00,45.6,36.0,30.22,WNW,299,1.1,1.1,69,0.00,,,0.01,0.0,WeatherDisplay:10.37,2013-02-16 02:16:00,
2013-02-15 18:20:00,45.5,35.9,30.22,WNW,299,1.1,1.1,69,0.00,,,0.01,0.0,WeatherDisplay:10.37,2013-02-16 02:20:00,
2013-02-15 18:21:00,45.4,35.8,30.22,WNW,299,1.1,1.1,69,0.00,,,0.01,0.0,WeatherDisplay:10.37,2013-02-16 02:21:00,
2013-02-15 18:25:00,45.2,36.0,30.23,WNW,299,0.0,0.0,70,0.00,,,0.01,0.0,WeatherDisplay:10.37,2013-02-16 02:25:00,
2013-02-15 18:26:00,45.1,35.9,30.23,WNW,299,1.1,0.0,70,0.00,,,0.01,0.0,WeatherDisplay:10.37,2013-02-16 02:26:00,
2013-02-15 18:30:00,44.9,35.7,30.23,WNW,299,1.1,0.0,70,0.00,,,0.01,0.0,WeatherDisplay:10.37,2013-02-16 02:30:00,
2013-02-15 18:31:00,44.8,35.6,30.23,WNW,299,0.0,0.0,70,0.00,,,0.01,0.0,WeatherDisplay:10.37,2013-02-16 02:31:00,
2013-02-15 18:35:00,44.4,35.6,30.23,WNW,299,0.0,0.0,71,0.00,,,0.01,0.0,WeatherDisplay:10.37,2013-02-16 02:35:00,
2013-02-15 18:36:00,44.4,35.6,30.23,WNW,299,0.0,0.0,71,0.00,,,0.01,0.0,WeatherDisplay:10.37,2013-02-16 02:36:00,
2013-02-15 18:37:00,44.4,35.6,30.23,WNW,299,0.0,0.0,71,0.00,,,0.01,0.0,WeatherDisplay:10.37,2013-02-16 02:37:00,
2013-02-15 18:40:00,44.3,35.8,30.23,WNW,299,0.0,0.0,72,0.00,,,0.01,0.0,WeatherDisplay:10.37,2013-02-16 02:40:00,
2013-02-15 18:41:00,44.3,35.8,30.23,WNW,299,0.0,0.0,72,0.00,,,0.01,0.0,WeatherDisplay:10.37,2013-02-16 02:41:00,
2013-02-15 18:42:00,44.3,35.8,30.23,WNW,299,1.1,0.0,72,0.00,,,0.01,0.0,WeatherDisplay:10.37,2013-02-16 02:42:00,
2013-02-15 18:46:00,44.4,35.9,30.23,WNW,299,3.5,3.5,72,0.00,,,0.01,0.0,WeatherDisplay:10.37,2013-02-16 02:46:00,
2013-02-15 18:47:00,44.4,35.9,30.23,WNW,299,2.3,2.3,72,0.00,,,0.01,0.0,WeatherDisplay:10.37,2013-02-16 02:47:00,
2013-02-15 18:51:00,44.2,35.7,30.23,WNW,299,0.0,0.0,72,0.00,,,0.01,0.0,WeatherDisplay:10.37,2013-02-16 02:51:00,
2013-02-15 18:52:00,44.2,35.7,30.23,WNW,299,0.0,0.0,72,0.00,,,0.01,0.0,WeatherDisplay:10.37,2013-02-16 02:52:00,
2013-02-15 18:53:00,44.2,35.7,30.23,WNW,299,0.0,0.0,72,0.00,,,0.01,0.0,WeatherDisplay:10.37,2013-02-16 02:53:00,
2013-02-15 18:56:00,44.1,35.6,30.23,WNW,299,0.0,0.0,72,0.00,,,0.01,0.0,WeatherDisplay:10.37,2013-02-16 02:56:00,
2013-02-15 18:57:00,44.0,35.6,30.23,WNW,299,0.0,0.0,72,0.00,,,0.01,0.0,WeatherDisplay:10.37,2013-02-16 02:57:00,
2013-02-15 18:58:00,44.0,35.6,30.23,WNW,299,0.0,0.0,72,0.00,,,0.01,0.0,WeatherDisplay:10.37,2013-02-16 02:58:00,
2013-02-15 19:01:00,43.9,35.8,30.23,WNW,299,0.0,0.0,73,0.00,,,0.01,0.0,WeatherDisplay:10.37,2013-02-16 03:01:00,
2013-02-15 19:02:00,43.8,35.7,30.23,WNW,299,0.0,0.0,73,0.00,,,0.01,0.0,WeatherDisplay:10.37,2013-02-16 03:02:00,
2013-02-15 19:03:00,43.8,35.7,30.23,WNW,299,0.0,0.0,73,0.00,,,0.01,0.0,WeatherDisplay:10.37,2013-02-16 03:03:00,
2013-02-15 19:07:00,43.8,35.7,30.23,WNW,299,0.0,0.0,73,0.00,,,0.01,0.0,WeatherDisplay:10.37,2013-02-16 03:07:00,
2013-02-15 19:08:00,43.8,35.7,30.23,WNW,299,1.1,1.1,73,0.00,,,0.01,0.0,WeatherDisplay:10.37,2013-02-16 03:08:00,
2013-02-15 19:09:00,43.8,35.7,30.23,WNW,299,1.1,0.0,73,0.00,,,0.01,0.0,WeatherDisplay:10.37,2013-02-16 03:09:00,
2013-02-15 19:12:00,43.7,35.6,30.23,WNW,299,1.1,1.1,73,0.00,,,0.01,0.0,WeatherDisplay:10.37,2013-02-16 03:12:00,
2013-02-15 19:13:00,43.6,35.5,30.23,WNW,299,1.1,0.0,73,0.00,,,0.01,0.0,WeatherDisplay:10.37,2013-02-16 03:13:00,
2013-02-15 19:14:00,43.6,35.5,30.23,WNW,299,0.0,0.0,73,0.00,,,0.01,0.0,WeatherDisplay:10.37,2013-02-16 03:14:00,
2013-02-15 19:17:00,43.4,35.3,30.23,WNW,299,0.0,0.0,73,0.00,,,0.01,0.0,WeatherDisplay:10.37,2013-02-16 03:17:00,
2013-02-15 19:18:00,43.4,35.3,30.22,WNW,299,0.0,0.0,73,0.00,,,0.01,0.0,WeatherDisplay:10.37,2013-02-16 03:18:00,
2013-02-15 19:19:00,43.3,35.6,30.22,WNW,299,0.0,0.0,74,0.00,,,0.01,0.0,WeatherDisplay:10.37,2013-02-16 03:19:00,
2013-02-15 19:22:00,43.4,35.7,30.23,WNW,299,0.0,0.0,74,0.00,,,0.01,0.0,WeatherDisplay:10.37,2013-02-16 03:22:00,
2013-02-15 19:23:00,43.4,35.3,30.23,WNW,299,0.0,0.0,73,0.00,,,0.01,0.0,WeatherDisplay:10.37,2013-02-16 03:23:00,
2013-02-15 19:24:00,43.4,35.7,30.23,WNW,299,0.0,0.0,74,0.00,,,0.01,0.0,WeatherDisplay:10.37,2013-02-16 03:24:00,
2013-02-15 19:28:00,43.3,35.2,30.23,WNW,299,0.0,0.0,73,0.00,,,0.01,0.0,WeatherDisplay:10.37,2013-02-16 03:28:00,
2013-02-15 19:29:00,43.2,35.1,30.23,WNW,299,0.0,0.0,73,0.00,,,0.01,0.0,WeatherDisplay:10.37,2013-02-16 03:29:00,
2013-02-15 19:33:00,43.1,35.4,30.23,WNW,299,2.3,2.3,74,0.00,,,0.01,0.0,WeatherDisplay:10.37,2013-02-16 03:33:00,
2013-02-15 19:34:00,43.1,35.4,30.23,WNW,299,2.3,0.0,74,0.00,,,0.01,0.0,WeatherDisplay:10.37,2013-02-16 03:34:00,
2013-02-15 19:35:00,43.1,35.0,30.23,WNW,299,1.1,0.0,73,0.00,,,0.01,0.0,WeatherDisplay:10.37,2013-02-16 03:35:00,
2013-02-15 19:38:00,42.7,34.6,30.23,WNW,299,0.0,0.0,73,0.00,,,0.01,0.0,WeatherDisplay:10.37,2013-02-16 03:38:00,
2013-02-15 19:39:00,42.5,34.5,30.23,WNW,299,0.0,0.0,73,0.00,,,0.01,0.0,WeatherDisplay:10.37,2013-02-16 03:39:00,
2013-02-15 19:40:00,42.4,34.4,30.23,WNW,299,0.0,0.0,73,0.00,,,0.01,0.0,WeatherDisplay:10.37,2013-02-16 03:40:00,
2013-02-15 19:43:00,42.3,34.9,30.23,WNW,299,1.1,0.0,75,0.00,,,0.01,0.0,WeatherDisplay:10.37,2013-02-16 03:43:00,
2013-02-15 19:44:00,42.2,34.8,30.23,WNW,299,0.0,0.0,75,0.00,,,0.01,0.0,WeatherDisplay:10.37,2013-02-16 03:44:00,
2013-02-15 19:45:00,42.2,34.8,30.22,WNW,299,1.1,0.0,75,0.00,,,0.01,0.0,WeatherDisplay:10.37,2013-02-16 03:45:00,
2013-02-15 19:48:00,41.9,34.2,30.22,WNW,299,0.0,0.0,74,0.00,,,0.01,0.0,WeatherDisplay:10.37,2013-02-16 03:48:00,
2013-02-15 19:49:00,41.8,34.5,30.22,WNW,299,0.0,0.0,75,0.00,,,0.01,0.0,WeatherDisplay:10.37,2013-02-16 03:49:00,
2013-02-15 19:51:00,41.7,34.4,30.23,WNW,299,0.0,0.0,75,0.00,,,0.01,0.0,WeatherDisplay:10.37,2013-02-16 03:51:00,
2013-02-15 19:53:00,41.6,34.3,30.23,WNW,299,0.0,0.0,75,0.00,,,0.01,0.0,WeatherDisplay:10.37,2013-02-16 03:53:00,
2013-02-15 19:54:00,41.6,34.3,30.23,WNW,299,0.0,0.0,75,0.00,,,0.01,0.0,WeatherDisplay:10.37,2013-02-16 03:54:00,
2013-02-15 19:56:00,41.3,34.0,30.23,WNW,299,0.0,0.0,75,0.00,,,0.01,0.0,WeatherDisplay:10.37,2013-02-16 03:56:00,
2013-02-15 19:58:00,41.2,34.2,30.23,WNW,299,0.0,0.0,76,0.00,,,0.01,0.0,WeatherDisplay:10.37,2013-02-16 03:58:00,
2013-02-15 19:59:00,41.2,34.2,30.23,WNW,299,0.0,0.0,76,0.00,,,0.01,0.0,WeatherDisplay:10.37,2013-02-16 03:59:00,
2013-02-15 20:01:00,41.0,34.0,30.23,WNW,299,0.0,0.0,76,0.00,,,0.01,0.0,WeatherDisplay:10.37,2013-02-16 04:01:00,
2013-02-15 20:03:00,40.8,34.1,30.23,WNW,299,0.0,0.0,77,0.00,,,0.01,0.0,WeatherDisplay:10.37,2013-02-16 04:03:00,
2013-02-15 20:04:00,40.8,34.1,30.23,WNW,299,0.0,0.0,77,0.00,,,0.01,0.0,WeatherDisplay:10.37,2013-02-16 04:04:00,
2013-02-15 20:07:00,40.6,34.0,30.23,WNW,299,0.0,0.0,77,0.00,,,0.01,0.0,WeatherDisplay:10.37,2013-02-16 04:07:00,
2013-02-15 20:08:00,40.5,33.9,30.23,WNW,299,0.0,0.0,77,0.00,,,0.01,0.0,WeatherDisplay:10.37,2013-02-16 04:08:00,
2013-02-15 20:09:00,40.4,33.8,30.23,WNW,299,0.0,0.0,77,0.00,,,0.01,0.0,WeatherDisplay:10.37,2013-02-16 04:09:00,
2013-02-15 20:12:00,40.3,34.0,30.23,WNW,299,0.0,0.0,78,0.00,,,0.01,0.0,WeatherDisplay:10.37,2013-02-16 04:12:00,
2013-02-15 20:14:00,40.1,33.5,30.23,North,5,1.1,0.0,77,0.00,,,0.01,0.0,WeatherDisplay:10.37,2013-02-16 04:14:00,
2013-02-15 20:15:00,40.0,33.4,30.23,North,5,0.0,0.0,77,0.00,,,0.01,0.0,WeatherDisplay:10.37,2013-02-16 04:15:00,
2013-02-15 20:17:00,39.5,32.9,30.23,North,5,0.0,0.0,77,0.00,,,0.01,0.0,WeatherDisplay:10.37,2013-02-16 04:17:00,
2013-02-15 20:19:00,39.2,32.9,30.23,North,5,0.0,0.0,78,0.00,,,0.01,0.0,WeatherDisplay:10.37,2013-02-16 04:19:00,
2013-02-15 20:20:00,39.2,32.9,30.23,North,5,1.0,0.0,78,0.00,,,0.01,0.0,WeatherDisplay:10.37,2013-02-16 04:20:00,
2013-02-15 20:22:00,38.9,32.6,30.23,North,5,0.0,0.0,78,0.00,,,0.01,0.0,WeatherDisplay:10.37,2013-02-16 04:22:00,
2013-02-15 20:24:00,38.8,32.8,30.23,North,5,1.1,1.1,79,0.00,,,0.01,0.0,WeatherDisplay:10.37,2013-02-16 04:24:00,
2013-02-15 20:25:00,38.8,32.8,30.23,North,5,1.1,1.1,79,0.00,,,0.01,0.0,WeatherDisplay:10.37,2013-02-16 04:25:00,
2013-02-15 20:28:00,38.6,32.6,30.23,North,5,0.0,0.0,79,0.00,,,0.01,0.0,WeatherDisplay:10.37,2013-02-16 04:28:00,
2013-02-15 20:29:00,38.5,32.6,30.23,North,5,1.1,0.0,79,0.00,,,0.01,0.0,WeatherDisplay:10.37,2013-02-16 04:29:00,
2013-02-15 20:30:00,38.4,32.5,30.23,North,5,0.0,0.0,79,0.00,,,0.01,0.0,WeatherDisplay:10.37,2013-02-16 04:30:00,
2013-02-15 20:33:00,38.3,32.7,30.23,North,5,1.1,1.1,80,0.00,,,0.01,0.0,WeatherDisplay:10.37,2013-02-16 04:33:00,
2013-02-15 20:34:00,38.3,32.7,30.23,North,5,1.1,1.1,80,0.00,,,0.01,0.0,WeatherDisplay:10.37,2013-02-16 04:34:00,
2013-02-15 20:35:00,38.3,32.7,30.23,North,5,1.1,1.1,80,0.00,,,0.01,0.0,WeatherDisplay:10.37,2013-02-16 04:35:00,
2013-02-15 20:38:00,38.5,32.9,30.23,NNE,13,1.0,1.0,80,0.00,,,0.01,0.0,WeatherDisplay:10.37,2013-02-16 04:38:00,
2013-02-15 20:39:00,38.6,33.0,30.23,NNE,15,2.3,2.3,80,0.00,,,0.01,0.0,WeatherDisplay:10.37,2013-02-16 04:39:00,
2013-02-15 20:40:00,38.6,33.0,30.23,NNE,15,2.3,2.3,80,0.00,,,0.01,0.0,WeatherDisplay:10.37,2013-02-16 04:40:00,
2013-02-15 20:43:00,38.8,33.2,30.23,NNE,17,0.0,0.0,80,0.00,,,0.01,0.0,WeatherDisplay:10.37,2013-02-16 04:43:00,
2013-02-15 20:45:00,38.8,33.2,30.23,NNE,17,1.1,1.1,80,0.00,,,0.01,0.0,WeatherDisplay:10.37,2013-02-16 04:45:00,
2013-02-15 20:46:00,38.9,32.9,30.23,NNE,17,1.1,1.1,79,0.00,,,0.01,0.0,WeatherDisplay:10.37,2013-02-16 04:46:00,
2013-02-15 20:49:00,39.0,33.0,30.23,NNE,17,0.0,0.0,79,0.00,,,0.01,0.0,WeatherDisplay:10.37,2013-02-16 04:49:00,
2013-02-15 20:50:00,39.0,33.0,30.23,NNE,17,0.0,0.0,79,0.00,,,0.01,0.0,WeatherDisplay:10.37,2013-02-16 04:50:00,
2013-02-15 20:52:00,38.9,32.6,30.23,NNE,17,1.0,1.0,78,0.00,,,0.01,0.0,WeatherDisplay:10.37,2013-02-16 04:52:00,
2013-02-15 20:54:00,38.8,32.8,30.23,NNE,30,2.3,2.3,79,0.00,,,0.01,0.0,WeatherDisplay:10.37,2013-02-16 04:54:00,
2013-02-15 20:55:00,38.7,32.7,30.23,SSE,150,2.3,2.3,79,0.00,,,0.01,0.0,WeatherDisplay:10.37,2013-02-16 04:55:00,
2013-02-15 20:58:00,38.6,32.6,30.23,SSE,167,2.3,2.3,79,0.00,,,0.01,0.0,WeatherDisplay:10.37,2013-02-16 04:58:00,
2013-02-15 20:59:00,38.5,32.6,30.23,SE,144,3.5,3.5,79,0.00,,,0.01,0.0,WeatherDisplay:10.37,2013-02-16 04:59:00,
2013-02-15 21:00:00,38.5,32.6,30.23,SSE,158,4.6,4.6,79,0.00,,,0.01,0.0,WeatherDisplay:10.37,2013-02-16 05:00:00,
2013-02-15 21:05:00,38.4,32.5,30.23,SSE,159,2.0,2.0,79,0.00,,,0.01,0.0,WeatherDisplay:10.37,2013-02-16 05:05:00,
2013-02-15 21:10:00,38.2,32.6,30.24,SSE,165,1.1,0.0,80,0.00,,,0.01,0.0,WeatherDisplay:10.37,2013-02-16 05:10:00,
2013-02-15 21:11:00,38.2,32.6,30.23,SSE,165,0.0,0.0,80,0.00,,,0.01,0.0,WeatherDisplay:10.37,2013-02-16 05:11:00,
2013-02-15 21:15:00,37.9,32.3,30.23,SSE,164,1.1,1.1,80,0.00,,,0.01,0.0,WeatherDisplay:10.37,2013-02-16 05:15:00,
2013-02-15 21:16:00,37.9,32.3,30.24,SSE,164,1.1,1.1,80,0.00,,,0.01,0.0,WeatherDisplay:10.37,2013-02-16 05:16:00,
2013-02-15 21:20:00,37.7,32.1,30.24,SE,141,1.1,0.0,80,0.00,,,0.01,0.0,WeatherDisplay:10.37,2013-02-16 05:20:00,
2013-02-15 21:22:00,37.5,31.9,30.24,SE,140,2.3,2.3,80,0.00,,,0.01,0.0,WeatherDisplay:10.37,2013-02-16 05:22:00,
2013-02-15 21:23:00,37.4,31.8,30.24,SE,140,2.3,2.3,80,0.00,,,0.01,0.0,WeatherDisplay:10.37,2013-02-16 05:23:00,
2013-02-15 21:25:00,37.2,31.9,30.24,SE,140,1.1,1.1,81,0.00,,,0.01,0.0,WeatherDisplay:10.37,2013-02-16 05:25:00,
2013-02-15 21:28:00,37.0,31.7,30.24,SE,141,1.1,1.1,81,0.00,,,0.01,0.0,WeatherDisplay:10.37,2013-02-16 05:28:00,
2013-02-15 21:30:00,36.9,31.9,30.24,South,177,2.3,2.3,82,0.00,,,0.01,0.0,WeatherDisplay:10.37,2013-02-16 05:30:00,
2013-02-15 21:33:00,36.8,32.1,30.24,SSE,154,2.3,2.3,83,0.00,,,0.01,0.0,WeatherDisplay:10.37,2013-02-16 05:33:00,
2013-02-15 21:35:00,36.9,32.2,30.24,SSE,155,3.5,3.5,83,0.00,,,0.01,0.0,WeatherDisplay:10.37,2013-02-16 05:35:00,
2013-02-15 21:38:00,37.0,32.3,30.24,SSE,150,3.5,3.5,83,0.00,,,0.01,0.0,WeatherDisplay:10.37,2013-02-16 05:38:00,
2013-02-15 21:40:00,37.0,32.3,30.24,SSE,149,2.3,2.3,83,0.00,,,0.01,0.0,WeatherDisplay:10.37,2013-02-16 05:40:00,
2013-02-15 21:43:00,36.9,32.2,30.24,SSE,149,1.1,1.1,83,0.00,,,0.01,0.0,WeatherDisplay:10.37,2013-02-16 05:43:00,
2013-02-15 21:44:00,36.9,32.2,30.24,SSE,149,1.1,1.1,83,0.00,,,0.01,0.0,WeatherDisplay:10.37,2013-02-16 05:44:00,
2013-02-15 21:45:00,36.9,32.2,30.24,SSE,149,1.1,0.0,83,0.00,,,0.01,0.0,WeatherDisplay:10.37,2013-02-16 05:45:00,
2013-02-15 21:46:00,36.9,32.2,30.24,SSE,149,0.0,0.0,83,0.00,,,0.01,0.0,WeatherDisplay:10.37,2013-02-16 05:46:00,
2013-02-15 21:48:00,36.9,32.2,30.24,SSE,149,0.0,0.0,83,0.00,,,0.01,0.0,WeatherDisplay:10.37,2013-02-16 05:48:00,
2013-02-15 21:49:00,36.8,32.1,30.24,SSE,149,0.0,0.0,83,0.00,,,0.01,0.0,WeatherDisplay:10.37,2013-02-16 05:49:00,
2013-02-15 21:51:00,36.8,32.1,30.24,SSE,149,1.1,0.0,83,0.00,,,0.01,0.0,WeatherDisplay:10.37,2013-02-16 05:51:00,
2013-02-15 21:54:00,36.8,31.8,30.24,SSE,149,1.1,1.1,82,0.00,,,0.01,0.0,WeatherDisplay:10.37,2013-02-16 05:54:00,
2013-02-15 21:56:00,36.7,32.0,30.24,SSE,149,2.3,2.3,83,0.00,,,0.01,0.0,WeatherDisplay:10.37,2013-02-16 05:56:00,
2013-02-15 21:59:00,36.5,31.8,30.24,SSE,149,1.1,1.1,83,0.00,,,0.01,0.0,WeatherDisplay:10.37,2013-02-16 05:59:00,
2013-02-15 22:01:00,36.3,31.3,30.24,SSE,149,1.1,1.1,82,0.00,,,0.01,0.0,WeatherDisplay:10.37,2013-02-16 06:01:00,
2013-02-15 22:04:00,36.0,31.0,30.24,SSE,149,1.1,1.1,82,0.00,,,0.01,0.0,WeatherDisplay:10.37,2013-02-16 06:04:00,
2013-02-15 22:06:00,36.0,31.3,30.24,SSE,149,1.0,1.0,83,0.00,,,0.01,0.0,WeatherDisplay:10.37,2013-02-16 06:06:00,
2013-02-15 22:09:00,36.0,31.3,30.23,SSE,149,1.0,3.0,83,0.00,,,0.01,0.0,WeatherDisplay:10.37,2013-02-16 06:09:00,
2013-02-15 22:10:00,36.0,31.6,30.23,SSE,149,2.3,2.3,84,0.00,,,0.01,0.0,WeatherDisplay:10.37,2013-02-16 06:10:00,
2013-02-15 22:11:00,36.1,31.7,30.23,SSE,149,2.3,2.3,84,0.00,,,0.01,0.0,WeatherDisplay:10.37,2013-02-16 06:11:00,
2013-02-15 22:12:00,36.1,31.7,30.23,SSE,149,3.5,3.5,84,0.00,,,0.01,0.0,WeatherDisplay:10.37,2013-02-16 06:12:00,
2013-02-15 22:15:00,36.4,32.0,30.23,SSE,149,2.3,2.3,84,0.00,,,0.01,0.0,WeatherDisplay:10.37,2013-02-16 06:15:00,
2013-02-15 22:16:00,36.4,31.7,30.23,SSE,149,3.5,3.5,83,0.00,,,0.01,0.0,WeatherDisplay:10.37,2013-02-16 06:16:00,
2013-02-15 22:17:00,36.4,31.7,30.23,SSE,149,2.3,2.3,83,0.00,,,0.01,0.0,WeatherDisplay:10.37,2013-02-16 06:17:00,
2013-02-15 22:20:00,36.3,31.6,30.23,SSE,149,3.5,3.5,83,0.00,,,0.01,0.0,WeatherDisplay:10.37,2013-02-16 06:20:00,
2013-02-15 22:21:00,36.3,31.6,30.23,SSE,149,2.3,2.3,83,0.00,,,0.01,0.0,WeatherDisplay:10.37,2013-02-16 06:21:00,
2013-02-15 22:22:00,36.3,31.6,30.23,SSE,149,3.5,3.5,83,0.00,,,0.01,0.0,WeatherDisplay:10.37,2013-02-16 06:22:00,
2013-02-15 22:25:00,36.2,31.5,30.23,SSE,149,2.3,2.3,83,0.00,,,0.01,0.0,WeatherDisplay:10.37,2013-02-16 06:25:00,
2013-02-15 22:27:00,36.1,31.4,30.23,SSE,149,2.3,2.3,83,0.00,,,0.01,0.0,WeatherDisplay:10.37,2013-02-16 06:27:00,
2013-02-15 22:30:00,36.1,31.4,30.23,SSE,149,2.3,2.3,83,0.00,,,0.01,0.0,WeatherDisplay:10.37,2013-02-16 06:30:00,
2013-02-15 22:32:00,36.1,31.4,30.23,SSE,149,2.3,2.3,83,0.00,,,0.01,0.0,WeatherDisplay:10.37,2013-02-16 06:32:00,
2013-02-15 22:35:00,36.3,31.6,30.23,SSE,148,3.5,3.5,83,0.00,,,0.01,0.0,WeatherDisplay:10.37,2013-02-16 06:35:00,
2013-02-15 22:36:00,36.3,31.6,30.23,SSE,148,3.5,3.5,83,0.00,,,0.01,0.0,WeatherDisplay:10.37,2013-02-16 06:36:00,
2013-02-15 22:37:00,36.3,31.3,30.23,SSE,148,3.5,3.5,82,0.00,,,0.01,0.0,WeatherDisplay:10.37,2013-02-16 06:37:00,
2013-02-15 22:38:00,36.3,31.3,30.23,SSE,148,3.5,3.5,82,0.00,,,0.01,0.0,WeatherDisplay:10.37,2013-02-16 06:38:00,
2013-02-15 22:41:00,36.0,31.0,30.23,SSE,148,1.1,1.1,82,0.00,,,0.01,0.0,WeatherDisplay:10.37,2013-02-16 06:41:00,
2013-02-15 22:43:00,35.9,30.9,30.23,SSE,148,1.1,1.1,82,0.00,,,0.01,0.0,WeatherDisplay:10.37,2013-02-16 06:43:00,
2013-02-15 22:46:00,35.9,31.2,30.23,SSE,148,2.3,2.3,83,0.00,,,0.01,0.0,WeatherDisplay:10.37,2013-02-16 06:46:00,
2013-02-15 22:48:00,35.9,31.2,30.23,SSE,148,1.1,1.1,83,0.00,,,0.01,0.0,WeatherDisplay:10.37,2013-02-16 06:48:00,
2013-02-15 22:51:00,35.7,31.0,30.23,SSE,148,2.3,2.3,83,0.00,,,0.01,0.0,WeatherDisplay:10.37,2013-02-16 06:51:00,
2013-02-15 22:53:00,35.8,31.1,30.23,SSE,148,1.1,1.1,83,0.00,,,0.01,0.0,WeatherDisplay:10.37,2013-02-16 06:53:00,
2013-02-15 22:56:00,35.7,30.7,30.23,SSE,148,1.1,0.0,82,0.00,,,0.01,0.0,WeatherDisplay:10.37,2013-02-16 06:56:00,
2013-02-15 22:58:00,35.6,30.6,30.23,SSE,148,0.0,0.0,82,0.00,,,0.01,0.0,WeatherDisplay:10.37,2013-02-16 06:58:00,
2013-02-15 23:01:00,35.5,30.8,30.23,SSE,148,1.1,0.0,83,0.00,,,0.01,0.0,WeatherDisplay:10.37,2013-02-16 07:01:00,
2013-02-15 23:03:00,35.3,30.7,30.23,SSE,148,0.0,0.0,83,0.00,,,0.01,0.0,WeatherDisplay:10.37,2013-02-16 07:03:00,
2013-02-15 23:04:00,35.3,30.7,30.22,SSE,148,0.0,0.0,83,0.00,,,0.01,0.0,WeatherDisplay:10.37,2013-02-16 07:04:00,
2013-02-15 23:06:00,35.2,30.6,30.22,SSE,148,1.1,0.0,83,0.00,,,0.01,0.0,WeatherDisplay:10.37,2013-02-16 07:06:00,
2013-02-15 23:07:00,35.2,30.6,30.22,SSE,148,0.0,0.0,83,0.00,,,0.01,0.0,WeatherDisplay:10.37,2013-02-16 07:07:00,
2013-02-15 23:08:00,35.1,30.5,30.22,SSE,148,0.0,0.0,83,0.00,,,0.01,0.0,WeatherDisplay:10.37,2013-02-16 07:08:00,
2013-02-15 23:09:00,35.1,30.5,30.23,SSE,148,0.0,0.0,83,0.00,,,0.01,0.0,WeatherDisplay:10.37,2013-02-16 07:09:00,
2013-02-15 23:11:00,35.0,30.4,30.23,SSE,148,0.0,0.0,83,0.00,,,0.01,0.0,WeatherDisplay:10.37,2013-02-16 07:11:00,
2013-02-15 23:12:00,35.0,30.4,30.23,SSE,148,0.0,0.0,83,0.00,,,0.01,0.0,WeatherDisplay:10.37,2013-02-16 07:12:00,
2013-02-15 23:13:00,34.8,30.2,30.23,SSE,148,0.0,0.1,83,0.00,,,0.01,0.0,WeatherDisplay:10.37,2013-02-16 07:13:00,
2013-02-15 23:14:00,34.8,30.2,30.23,SSE,148,1.1,1.1,83,0.00,,,0.01,0.0,WeatherDisplay:10.37,2013-02-16 07:14:00,
2013-02-15 23:16:00,34.7,30.1,30.23,SSE,148,1.1,1.1,83,0.00,,,0.01,0.0,WeatherDisplay:10.37,2013-02-16 07:16:00,
2013-02-15 23:17:00,34.7,30.4,30.23,SSE,148,1.1,1.1,84,0.00,,,0.01,0.0,WeatherDisplay:10.37,2013-02-16 07:17:00,
2013-02-15 23:18:00,34.6,30.3,30.22,SSE,148,0.0,0.0,84,0.00,,,0.01,0.0,WeatherDisplay:10.37,2013-02-16 07:18:00,
2013-02-15 23:20:00,34.5,30.2,30.22,SSE,148,0.0,0.0,84,0.00,,,0.01,0.0,WeatherDisplay:10.37,2013-02-16 07:20:00,
2013-02-15 23:21:00,34.4,30.1,30.22,SSE,148,0.0,0.0,84,0.00,,,0.01,0.0,WeatherDisplay:10.37,2013-02-16 07:21:00,
2013-02-15 23:22:00,34.3,30.0,30.22,SSE,148,0.0,0.0,84,0.00,,,0.01,0.0,WeatherDisplay:10.37,2013-02-16 07:22:00,
2013-02-15 23:23:00,34.3,30.0,30.22,SSE,148,0.0,0.0,84,0.00,,,0.01,0.0,WeatherDisplay:10.37,2013-02-16 07:23:00,
2013-02-15 23:25:00,34.2,29.9,30.22,SSE,148,0.0,0.0,84,0.00,,,0.01,0.0,WeatherDisplay:10.37,2013-02-16 07:25:00,
2013-02-15 23:26:00,34.1,29.8,30.23,SSE,148,1.0,1.0,84,0.00,,,0.01,0.0,WeatherDisplay:10.37,2013-02-16 07:26:00,
2013-02-15 23:27:00,34.1,29.8,30.22,SSE,148,1.1,0.0,84,0.00,,,0.01,0.0,WeatherDisplay:10.37,2013-02-16 07:27:00,
2013-02-15 23:29:00,34.0,29.7,30.22,SSE,148,0.0,0.0,84,0.00,,,0.01,0.0,WeatherDisplay:10.37,2013-02-16 07:29:00,
2013-02-15 23:30:00,33.9,29.9,30.22,SSE,148,0.0,0.0,85,0.00,,,0.01,0.0,WeatherDisplay:10.37,2013-02-16 07:30:00,
2013-02-15 23:31:00,33.9,29.9,30.22,SSE,148,0.0,0.0,85,0.00,,,0.01,0.0,WeatherDisplay:10.37,2013-02-16 07:31:00,
2013-02-15 23:32:00,33.9,29.9,30.22,SSE,148,0.0,0.0,85,0.00,,,0.01,0.0,WeatherDisplay:10.37,2013-02-16 07:32:00,
2013-02-15 23:34:00,33.8,29.8,30.22,SSE,148,1.1,1.1,85,0.00,,,0.01,0.0,WeatherDisplay:10.37,2013-02-16 07:34:00,
2013-02-15 23:35:00,33.8,29.8,30.22,SSE,148,1.1,1.1,85,0.00,,,0.01,0.0,WeatherDisplay:10.37,2013-02-16 07:35:00,
2013-02-15 23:36:00,33.7,29.7,30.22,SSE,148,1.1,1.1,85,0.00,,,0.01,0.0,WeatherDisplay:10.37,2013-02-16 07:36:00,
2013-02-15 23:38:00,33.6,29.3,30.22,SSE,148,1.1,0.0,84,0.00,,,0.01,0.0,WeatherDisplay:10.37,2013-02-16 07:38:00,
2013-02-15 23:40:00,33.5,29.2,30.22,SSE,148,1.1,1.1,84,0.00,,,0.01,0.0,WeatherDisplay:10.37,2013-02-16 07:40:00,
2013-02-15 23:41:00,33.4,29.4,30.22,SSE,148,1.1,1.1,85,0.00,,,0.01,0.0,WeatherDisplay:10.37,2013-02-16 07:41:00,
2013-02-15 23:44:00,33.3,29.3,30.22,SSE,148,0.0,0.0,85,0.00,,,0.01,0.0,WeatherDisplay:10.37,2013-02-16 07:44:00,
2013-02-15 23:45:00,33.3,29.3,30.22,SSE,148,1.1,1.1,85,0.00,,,0.01,0.0,WeatherDisplay:10.37,2013-02-16 07:45:00,
2013-02-15 23:46:00,33.2,29.2,30.22,SSE,148,1.1,1.1,85,0.00,,,0.01,0.0,WeatherDisplay:10.37,2013-02-16 07:46:00,
2013-02-15 23:47:00,33.2,29.2,30.22,SSE,148,2.3,2.3,85,0.00,,,0.01,0.0,WeatherDisplay:10.37,2013-02-16 07:47:00,
2013-02-15 23:49:00,33.2,29.2,30.22,SSE,148,2.3,2.3,85,0.00,,,0.01,0.0,WeatherDisplay:10.37,2013-02-16 07:49:00,
2013-02-15 23:50:00,33.1,29.1,30.21,SSE,148,2.3,2.3,85,0.00,,,0.01,0.0,WeatherDisplay:10.37,2013-02-16 07:50:00,
2013-02-15 23:52:00,33.1,29.1,30.21,SSE,147,2.3,2.3,85,0.00,,,0.01,0.0,WeatherDisplay:10.37,2013-02-16 07:52:00,
2013-02-15 23:53:00,33.1,29.1,30.21,SE,146,3.5,3.5,85,0.00,,,0.01,0.0,WeatherDisplay:10.37,2013-02-16 07:53:00,
2013-02-15 23:54:00,33.1,29.4,30.22,SE,145,3.5,3.5,86,0.00,,,0.01,0.0,WeatherDisplay:10.37,2013-02-16 07:54:00,
2013-02-15 23:55:00,33.1,29.4,30.22,SE,145,4.0,4.0,86,0.00,,,0.01,0.0,WeatherDisplay:10.37,2013-02-16 07:55:00,
2013-02-15 23:57:00,33.1,29.4,30.22,SE,141,3.5,3.5,86,0.00,,,0.01,0.0,WeatherDisplay:10.37,2013-02-16 07:57:00,
2013-02-15 23:58:00,33.1,29.4,30.21,SE,140,3.5,3.5,86,0.00,,,0.01,0.0,WeatherDisplay:10.37,2013-02-16 07:58:00,
2013-02-15 23:59:00,33.1,29.4,30.21,SE,140,3.5,3.5,86,0.00,,,0.01,0.0,WeatherDisplay:10.37,2013-02-16 07:59:00,